M I D A S
Marine Information and Data Acquisition System
Tripno 1281 of the Zeeleeuw from 2007-05-31 07:14:18 to 2007-05-31 14:33:15
Back to CruiseResearch ActivitiesStationsMapUnderway DataData graphs

EquipmentUnitsComment
TimeDGPSUTC
LatitudeDGPSDM.mWGS84
LongitudeDGPSDM.mWGS84
TemperatureSBE03/SBE38deg celciusITS90
ConductivitySBE21S/mITS90
SalinitySBE21 Practical Salinity Units
ChlorophylAChelsea fluorimeterg/lCalibrated in Aceton
Missing or incorrect values are displayed as -999
Sea surface data collected by the RV Zeeleeuw from 2007-05-31 07:16:55 to 2007-05-31 14:42:46
                                                                                    Next 1000 lines
Time Latitude Longitude Temperature Conductivity Salinity ChlorophylA
2007-05-31 07:17:05 51°13.597 2°56.093 19.9747 0.067045 0.357014 -2.871232
2007-05-31 07:17:10 51°13.598 2°56.091 19.9628 0.067045 0.357014 -2.871232
2007-05-31 07:17:15 51°13.599 2°56.088 19.996 0.067045 0.357014 -2.871232
2007-05-31 07:17:20 51°13.599 2°56.085 20.0154 0.067045 0.357021 -2.871232
2007-05-31 07:17:25 51°13.601 2°56.081 20.0194 0.067045 0.357021 -2.871232
2007-05-31 07:17:30 51°13.602 2°56.076 20.0283 0.067045 0.357021 -2.871232
2007-05-31 07:17:35 51°13.604 2°56.071 20.0255 0.067045 0.357021 -2.871232
2007-05-31 07:17:40 51°13.605 2°56.065 20.0448 0.067045 0.357021 -2.871232
2007-05-31 07:17:45 51°13.607 2°56.06 20.0211 0.067045 0.357027 -2.871232
2007-05-31 07:17:50 51°13.609 2°56.053 20.0423 0.067045 0.357021 -2.871232
2007-05-31 07:17:55 51°13.611 2°56.047 20.0414 0.067045 0.357021 -2.871232
2007-05-31 07:18:00 51°13.613 2°56.04 20.0456 0.067045 0.357021 -2.871232
2007-05-31 07:18:05 51°13.616 2°56.033 20.0305 0.067045 0.357021 -2.871232
2007-05-31 07:18:10 51°13.618 2°56.026 20.039 0.067045 0.357021 -2.871232
2007-05-31 07:18:15 51°13.621 2°56.018 20.0351 0.067045 0.357021 -2.871232
2007-05-31 07:18:20 51°13.624 2°56.01 20.0376 0.067045 0.357021 -2.871232
2007-05-31 07:18:25 51°13.626 2°56.002 20.0392 0.067045 0.357021 -2.871232
2007-05-31 07:18:30 51°13.629 2°55.993 20.0445 0.067045 0.357021 -2.871232
2007-05-31 07:18:35 51°13.633 2°55.985 20.048 0.067045 0.357027 -2.871232
2007-05-31 07:18:40 51°13.636 2°55.976 20.0541 0.067045 0.357027 -2.871232
2007-05-31 07:18:45 51°13.639 2°55.967 20.0534 0.067045 0.357027 -2.871232
2007-05-31 07:18:50 51°13.643 2°55.958 20.0517 0.067045 0.357027 -2.871232
2007-05-31 07:18:55 51°13.646 2°55.949 20.0543 0.067045 0.357027 -2.871232
2007-05-31 07:19:00 51°13.65 2°55.94 20.0666 0.067045 0.357034 -2.871232
2007-05-31 07:19:05 51°13.653 2°55.931 20.071 0.067045 0.357034 -2.871232
2007-05-31 07:19:10 51°13.657 2°55.922 20.0707 0.067045 0.357034 -2.871232
2007-05-31 07:19:15 51°13.66 2°55.913 20.0663 0.067045 0.357034 -2.871232
2007-05-31 07:19:20 51°13.664 2°55.904 20.0698 0.067045 0.357034 -2.871232
2007-05-31 07:19:25 51°13.667 2°55.896 20.0642 0.067045 0.357034 -2.871232
2007-05-31 07:19:30 51°13.669 2°55.887 20.063 0.067045 0.357041 -2.871232
2007-05-31 07:19:35 51°13.672 2°55.879 20.063 0.067045 0.357041 -2.871232
2007-05-31 07:19:40 51°13.675 2°55.87 20.0625 0.067045 0.357041 -2.871232
2007-05-31 07:19:45 51°13.677 2°55.862 20.0626 0.067045 0.357041 -2.871232
2007-05-31 07:19:50 51°13.679 2°55.853 20.062 0.067045 0.357041 -2.871232
2007-05-31 07:19:55 51°13.681 2°55.845 20.0621 0.067045 0.357041 -2.871232
2007-05-31 07:20:00 51°13.683 2°55.837 20.0612 0.067045 0.357048 -2.871232
2007-05-31 07:20:05 51°13.684 2°55.829 20.0521 0.067045 0.357048 -2.871232
2007-05-31 07:20:10 51°13.685 2°55.822 20.0572 0.067045 0.357048 -2.871232
2007-05-31 07:20:15 51°13.686 2°55.815 20.0446 0.067045 0.357048 -2.871232
2007-05-31 07:20:20 51°13.687 2°55.807 20.043 0.067045 0.357048 -2.871232
2007-05-31 07:20:25 51°13.687 2°55.8 20.0465 0.067045 0.357055 -2.871232
2007-05-31 07:20:30 51°13.688 2°55.794 20.0487 0.067045 0.357055 -2.871232
2007-05-31 07:20:35 51°13.689 2°55.787 20.0496 0.067045 0.357055 -2.871232
2007-05-31 07:20:40 51°13.689 2°55.78 20.053 0.067045 0.357055 -2.871232
2007-05-31 07:20:45 51°13.689 2°55.774 20.055 0.067045 0.357055 -2.871232
2007-05-31 07:20:50 51°13.69 2°55.767 20.0567 0.067045 0.357055 -2.871232
2007-05-31 07:20:55 51°13.69 2°55.761 20.0566 0.067045 0.357061 -2.871232
2007-05-31 07:21:00 51°13.69 2°55.756 20.0568 0.067045 0.357061 -2.871232
2007-05-31 07:21:05 51°13.69 2°55.75 20.0544 0.067045 0.357061 -2.871232
2007-05-31 07:21:10 51°13.69 2°55.745 20.0578 0.067045 0.357061 -2.871232
2007-05-31 07:21:15 51°13.69 2°55.741 20.0677 0.067045 0.357061 -2.871232
2007-05-31 07:21:20 51°13.69 2°55.737 20.0743 0.067045 0.357061 -2.871232
2007-05-31 07:21:25 51°13.689 2°55.733 20.0789 0.067045 0.357061 -2.871232
2007-05-31 07:21:30 51°13.689 2°55.73 20.0787 0.066942 0.356496 -2.871232
2007-05-31 07:21:35 51°13.689 2°55.728 20.0783 0.067045 0.357068 -2.871232
2007-05-31 07:21:40 51°13.688 2°55.726 20.079 0.067045 0.357068 -2.871232
2007-05-31 07:21:45 51°13.688 2°55.724 20.0771 0.067045 0.357061 -2.871232
2007-05-31 07:21:50 51°13.689 2°55.722 20.0783 0.067045 0.357068 -2.871232
2007-05-31 07:21:55 51°13.689 2°55.722 20.0891 0.066942 0.356503 -2.871232
2007-05-31 07:22:00 51°13.69 2°55.722 20.1 0.067045 0.357068 -2.871232
2007-05-31 07:22:05 51°13.691 2°55.722 20.1048 0.067045 0.357068 -2.871232
2007-05-31 07:22:10 51°13.692 2°55.723 20.0993 0.067045 0.357068 -2.871232
2007-05-31 07:22:15 51°13.694 2°55.724 20.0941 0.066942 0.35651 -2.871232
2007-05-31 07:22:20 51°13.695 2°55.725 20.0922 0.067045 0.357075 -2.871232
2007-05-31 07:22:25 51°13.697 2°55.725 20.0938 0.067045 0.357082 -2.871232
2007-05-31 07:22:30 51°13.698 2°55.726 20.093 0.067045 0.357082 -2.871232
2007-05-31 07:22:35 51°13.7 2°55.727 20.0937 0.067045 0.357089 -2.871232
2007-05-31 07:22:40 51°13.702 2°55.728 20.0935 0.067045 0.357089 -2.871232
2007-05-31 07:22:45 51°13.704 2°55.728 20.0949 0.067045 0.357089 -2.871232
2007-05-31 07:22:50 51°13.707 2°55.728 20.0999 0.067045 0.357089 -2.871232
2007-05-31 07:22:55 51°13.709 2°55.728 20.1263 0.067045 0.357089 -2.871232
2007-05-31 07:23:00 51°13.712 2°55.728 20.1203 0.067045 0.357089 -2.871232
2007-05-31 07:23:05 51°13.715 2°55.727 20.1382 0.067045 0.357095 -2.871232
2007-05-31 07:23:10 51°13.718 2°55.725 20.1451 0.067045 0.357095 -2.871232
2007-05-31 07:23:15 51°13.722 2°55.724 20.1426 0.067045 0.357089 -2.871232
2007-05-31 07:23:20 51°13.725 2°55.721 20.1436 0.067045 0.357095 -2.871232
2007-05-31 07:23:25 51°13.729 2°55.718 20.1474 0.067045 0.357095 -2.871232
2007-05-31 07:23:30 51°13.734 2°55.715 20.1531 0.067045 0.357095 -2.871232
2007-05-31 07:23:35 51°13.739 2°55.71 20.1245 0.067045 0.357095 -2.871232
2007-05-31 07:23:40 51°13.745 2°55.705 20.0869 0.067045 0.357095 -2.871232
2007-05-31 07:23:45 51°13.752 2°55.699 20.0859 0.067045 0.357089 -2.871232
2007-05-31 07:23:50 51°13.759 2°55.692 20.0427 0.067045 0.357089 -2.871232
2007-05-31 07:23:55 51°13.767 2°55.686 20.0587 0.067045 0.357082 -2.871232
2007-05-31 07:24:00 51°13.775 2°55.679 20.0323 0.067045 0.357082 -2.871232
2007-05-31 07:24:05 51°13.784 2°55.672 20.0152 0.067045 0.357082 -2.871232
2007-05-31 07:24:10 51°13.794 2°55.664 19.9942 0.067045 0.357082 -2.871232
2007-05-31 07:24:15 51°13.803 2°55.656 19.9888 0.067045 0.357082 -2.871232
2007-05-31 07:24:20 51°13.813 2°55.649 19.9875 0.067045 0.357089 -2.871232
2007-05-31 07:24:25 51°13.824 2°55.641 19.9818 0.067045 0.357089 -2.871232
2007-05-31 07:24:30 51°13.834 2°55.633 20.0188 0.067045 0.357095 -2.871232
2007-05-31 07:24:35 51°13.845 2°55.625 19.9993 0.067045 0.357095 -2.871232
2007-05-31 07:24:40 51°13.856 2°55.617 20.0089 0.067045 0.357095 -2.871232
2007-05-31 07:24:45 51°13.868 2°55.609 20.045 0.067045 0.357095 -2.871232
2007-05-31 07:24:50 51°13.879 2°55.601 20.0215 0.067045 0.357102 -2.871232
2007-05-31 07:24:55 51°13.891 2°55.592 19.9925 0.067045 0.357102 -2.871232
2007-05-31 07:25:00 51°13.903 2°55.584 20.0035 0.067045 0.357102 -2.871232
2007-05-31 07:25:05 51°13.914 2°55.575 19.9982 0.067045 0.357102 -2.871232
2007-05-31 07:25:10 51°13.926 2°55.567 20.0406 0.067045 0.357102 -2.871232
2007-05-31 07:25:15 51°13.938 2°55.558 20.0576 0.067045 0.357102 -2.871232
2007-05-31 07:25:20 51°13.95 2°55.549 20.0262 0.067045 0.357109 -2.871232
2007-05-31 07:25:25 51°13.962 2°55.54 19.9714 0.067045 0.357109 -2.871232
2007-05-31 07:25:30 51°13.974 2°55.532 19.9639 0.066942 0.356544 -2.871232
2007-05-31 07:25:35 51°13.985 2°55.524 20.0186 0.067045 0.357116 -2.871232
2007-05-31 07:25:40 51°13.996 2°55.516 20.0298 0.067045 0.357116 -2.871232
2007-05-31 07:25:45 51°14.007 2°55.508 20.0485 0.067045 0.357116 -2.871232
2007-05-31 07:25:50 51°14.017 2°55.501 20.0517 0.067045 0.357123 -2.871232
2007-05-31 07:25:55 51°14.028 2°55.494 20.0582 0.067045 0.357123 -2.871232
2007-05-31 07:26:00 51°14.038 2°55.486 20.0608 0.067045 0.357123 -2.871232
2007-05-31 07:26:05 51°14.048 2°55.479 20.0923 0.067045 0.357123 -2.871232
2007-05-31 07:26:10 51°14.057 2°55.472 20.0805 0.067045 0.357123 -2.871232
2007-05-31 07:26:15 51°14.067 2°55.465 20.09 0.066942 0.356564 -2.871232
2007-05-31 07:26:20 51°14.076 2°55.458 20.0908 0.067045 0.357129 -2.871232
2007-05-31 07:26:25 51°14.085 2°55.45 20.0873 0.067045 0.357129 -2.871232
2007-05-31 07:26:30 51°14.094 2°55.443 20.0865 0.067045 0.357129 -2.871232
2007-05-31 07:26:35 51°14.103 2°55.436 20.0936 0.067045 0.357129 -2.871232
2007-05-31 07:26:40 51°14.112 2°55.429 20.1134 0.067045 0.357129 -2.871232
2007-05-31 07:26:45 51°14.121 2°55.422 20.1335 0.067045 0.357136 -2.871232
2007-05-31 07:26:50 51°14.13 2°55.414 20.1259 0.067045 0.357136 -2.871232
2007-05-31 07:26:55 51°14.14 2°55.407 20.1446 0.067045 0.357136 -2.871232
2007-05-31 07:27:00 51°14.15 2°55.399 20.1429 0.067045 0.357136 -2.871232
2007-05-31 07:27:05 51°14.16 2°55.39 20.1382 0.067045 0.357136 -2.871232
2007-05-31 07:27:10 51°14.17 2°55.381 20.1307 0.067045 0.357136 -2.871232
2007-05-31 07:27:15 51°14.18 2°55.372 20.127 0.067045 0.357136 -2.871232
2007-05-31 07:27:20 51°14.189 2°55.362 20.1214 0.067045 0.357136 -2.871232
2007-05-31 07:27:25 51°14.199 2°55.352 20.1309 0.067045 0.357143 -2.871232
2007-05-31 07:27:30 51°14.209 2°55.341 20.1363 0.067045 0.357143 -2.871232
2007-05-31 07:27:35 51°14.218 2°55.329 20.1458 0.067045 0.357143 -2.871232
2007-05-31 07:27:40 51°14.228 2°55.317 20.172 0.067045 0.357143 -2.871232
2007-05-31 07:27:45 51°14.237 2°55.304 20.1776 0.067045 0.357143 -2.871232
2007-05-31 07:27:50 51°14.246 2°55.29 20.1711 0.066942 0.356578 -2.871232
2007-05-31 07:27:55 51°14.255 2°55.275 20.095 0.067045 0.357123 -2.871232
2007-05-31 07:28:00 51°14.264 2°55.259 20.1315 0.067045 0.357102 -2.871232
2007-05-31 07:28:05 51°14.273 2°55.243 20.0851 0.067045 0.357089 -2.871232
2007-05-31 07:28:10 51°14.282 2°55.227 20.0703 0.067045 0.357089 -2.871232
2007-05-31 07:28:15 51°14.291 2°55.209 20.0186 0.067045 0.357082 -2.871232
2007-05-31 07:28:20 51°14.3 2°55.192 20.0905 0.067045 0.357082 -2.871232
2007-05-31 07:28:25 51°14.309 2°55.174 20.0724 0.067045 0.357095 -2.871232
2007-05-31 07:28:30 51°14.319 2°55.155 20.0536 0.067045 0.357109 -2.871232
2007-05-31 07:28:35 51°14.328 2°55.136 20.0497 0.067045 0.357129 -2.871232
2007-05-31 07:28:40 51°14.339 2°55.117 20.1195 0.067045 0.357129 -2.871232
2007-05-31 07:28:44 51°14.346 2°55.102 20.1182 0.067045 0.35715 -2.871232
2007-05-31 07:28:50 51°14.358 2°55.078 20.0514 0.067045 0.357163 -2.871232
2007-05-31 07:28:54 51°14.365 2°55.062 20.0997 0.067045 0.357157 -2.871232
2007-05-31 07:28:59 51°14.374 2°55.041 20.0932 0.067045 0.357143 -2.871232
2007-05-31 07:29:04 51°14.383 2°55.02 20.0898 0.067045 0.357136 -2.871232
2007-05-31 07:29:10 51°14.394 2°54.995 20.067 0.067045 0.357136 -2.871232
2007-05-31 07:29:15 51°14.403 2°54.973 20.083 0.067045 0.357129 -2.871232
2007-05-31 07:29:20 51°14.412 2°54.951 20.11 0.067045 0.357136 -2.871232
2007-05-31 07:29:25 51°14.42 2°54.928 20.104 0.067045 0.357143 -2.871232
2007-05-31 07:29:30 51°14.428 2°54.905 20.093 0.067045 0.35715 -2.871232
2007-05-31 07:29:35 51°14.437 2°54.881 20.0945 0.067045 0.357157 -2.871232
2007-05-31 07:29:40 51°14.446 2°54.857 20.0817 0.067045 0.357157 -2.871232
2007-05-31 07:29:45 51°14.455 2°54.833 20.0588 0.067045 0.35717 -2.871232
2007-05-31 07:29:50 51°14.464 2°54.808 20.0179 0.067045 0.357184 -2.871232
2007-05-31 07:29:55 51°14.474 2°54.783 20.0356 0.067045 0.357191 -2.871232
2007-05-31 07:30:00 51°14.483 2°54.758 20.0803 0.067045 0.357197 -2.871232
2007-05-31 07:30:05 51°14.493 2°54.733 20.1017 0.067045 0.357197 -2.871232
2007-05-31 07:30:10 51°14.502 2°54.707 20.0946 0.067045 0.357197 -2.871232
2007-05-31 07:30:15 51°14.512 2°54.681 20.1257 0.067045 0.357204 -2.871232
2007-05-31 07:30:20 51°14.521 2°54.656 20.13 0.067045 0.357197 -2.871232
2007-05-31 07:30:25 51°14.53 2°54.63 20.1023 0.067045 0.357197 -2.871232
2007-05-31 07:30:30 51°14.539 2°54.604 20.1049 0.067045 0.357191 -2.871232
2007-05-31 07:30:35 51°14.548 2°54.578 20.0977 0.067045 0.357191 -2.871232
2007-05-31 07:30:40 51°14.557 2°54.552 20.0435 0.067045 0.357191 -2.871232
2007-05-31 07:30:45 51°14.567 2°54.525 20.103 0.067045 0.357184 -2.871232
2007-05-31 07:30:49 51°14.574 2°54.504 20.122 0.066942 0.356619 -2.871232
2007-05-31 07:30:55 51°14.585 2°54.473 20.0678 0.067045 0.357184 -2.871232
2007-05-31 07:31:00 51°14.594 2°54.447 20.0821 0.067045 0.357177 -2.871232
2007-05-31 07:31:05 51°14.604 2°54.421 20.0811 0.067045 0.357177 -2.871232
2007-05-31 07:31:10 51°14.613 2°54.396 20.0698 0.067045 0.357177 -2.871232
2007-05-31 07:31:15 51°14.623 2°54.37 20.0565 0.067045 0.357177 -2.871232
2007-05-31 07:31:20 51°14.633 2°54.344 20.0756 0.067045 0.357177 -2.871232
2007-05-31 07:31:25 51°14.643 2°54.319 20.051 0.066942 0.356612 -2.871232
2007-05-31 07:31:30 51°14.652 2°54.293 20.1613 0.067045 0.357184 -2.871232
2007-05-31 07:31:35 51°14.66 2°54.266 20.1199 0.067045 0.357191 -2.871232
2007-05-31 07:31:40 51°14.667 2°54.239 20.1195 0.067045 0.357191 -2.871232
2007-05-31 07:31:45 51°14.674 2°54.211 20.0877 0.067045 0.357197 -2.871232
2007-05-31 07:31:50 51°14.68 2°54.183 20.0999 0.066942 0.356632 -2.871232
2007-05-31 07:31:55 51°14.686 2°54.154 20.1422 0.067045 0.357197 -2.871232
2007-05-31 07:32:00 51°14.69 2°54.125 20.1257 0.066942 0.356632 -2.871232
2007-05-31 07:32:05 51°14.694 2°54.095 20.1015 0.067045 0.357204 -2.871232
2007-05-31 07:32:10 51°14.697 2°54.066 20.0956 0.067045 0.357204 -2.871232
2007-05-31 07:32:15 51°14.699 2°54.036 20.097 0.067045 0.357204 -2.871232
2007-05-31 07:32:20 51°14.701 2°54.006 20.06 0.066942 0.356632 -2.871232
2007-05-31 07:32:25 51°14.703 2°53.975 20.1042 0.067045 0.357204 -2.871232
2007-05-31 07:32:30 51°14.705 2°53.945 20.09 0.067045 0.357197 -2.871232
2007-05-31 07:32:35 51°14.706 2°53.915 19.994 0.066942 0.356632 -2.871232
2007-05-31 07:32:40 51°14.708 2°53.885 20.0273 0.066942 0.356632 -2.871232
2007-05-31 07:32:45 51°14.71 2°53.855 20.0253 0.066942 0.356632 -2.871232
2007-05-31 07:32:49 51°14.712 2°53.831 20.0281 0.067045 0.357197 -2.871232
2007-05-31 07:32:55 51°14.715 2°53.795 20.0391 0.067045 0.357197 -2.871232
2007-05-31 07:33:00 51°14.718 2°53.765 20.0776 0.067045 0.357204 -2.871232
2007-05-31 07:33:05 51°14.721 2°53.735 20.0505 0.067045 0.357204 -2.871232
2007-05-31 07:33:09 51°14.723 2°53.711 20.0569 0.067045 0.357204 -2.871232
2007-05-31 07:33:15 51°14.727 2°53.676 20.0987 0.066942 0.356639 -2.871232
2007-05-31 07:33:20 51°14.729 2°53.646 20.0751 0.067045 0.357211 -2.871232
2007-05-31 07:33:25 51°14.732 2°53.616 20.0662 0.066942 0.356653 -2.871232
2007-05-31 07:33:30 51°14.734 2°53.585 20.0879 0.066942 0.356653 -2.871232
2007-05-31 07:33:35 51°14.737 2°53.555 20.0664 0.066942 0.356653 -2.871232
2007-05-31 07:33:40 51°14.74 2°53.525 20.0682 0.066942 0.356653 -2.871232
2007-05-31 07:33:45 51°14.742 2°53.495 20.0441 0.067045 0.357225 -2.871232
2007-05-31 07:33:50 51°14.745 2°53.465 20.0771 0.067045 0.357225 -2.871232
2007-05-31 07:33:55 51°14.748 2°53.434 20.0472 0.067045 0.357225 -2.871232
2007-05-31 07:34:00 51°14.751 2°53.404 20.0601 0.067045 0.357231 -2.871232
2007-05-31 07:34:05 51°14.754 2°53.374 20.0948 0.067045 0.357231 -2.871232
2007-05-31 07:34:10 51°14.757 2°53.344 20.0771 0.067045 0.357231 -2.871232
2007-05-31 07:34:15 51°14.759 2°53.314 20.0905 0.067045 0.357231 -2.871232
2007-05-31 07:34:20 51°14.761 2°53.283 20.085 0.066942 0.356666 -2.871232
2007-05-31 07:34:25 51°14.763 2°53.253 20.0736 0.067045 0.357231 -2.871232
2007-05-31 07:34:30 51°14.765 2°53.223 20.0623 0.066942 0.356673 -2.871232
2007-05-31 07:34:35 51°14.767 2°53.193 20.0616 0.067045 0.357238 -2.871232
2007-05-31 07:34:40 51°14.768 2°53.163 20.056 0.067045 0.357238 -2.871232
2007-05-31 07:34:45 51°14.77 2°53.133 20.0902 0.066942 0.356673 -2.871232
2007-05-31 07:34:50 51°14.772 2°53.103 20.0817 0.067045 0.357245 -2.871232
2007-05-31 07:34:55 51°14.774 2°53.074 20.0519 0.066942 0.35668 -2.871232
2007-05-31 07:35:00 51°14.776 2°53.043 20.0577 0.066942 0.35668 -2.871232
2007-05-31 07:35:05 51°14.778 2°53.013 20.0698 0.067045 0.357252 -2.871232
2007-05-31 07:35:10 51°14.781 2°52.983 20.0499 0.067045 0.357252 -2.871232
2007-05-31 07:35:15 51°14.783 2°52.953 20.0822 0.067045 0.357252 -2.871232
2007-05-31 07:35:20 51°14.785 2°52.923 20.0769 0.067045 0.357259 -2.871232
2007-05-31 07:35:25 51°14.787 2°52.892 20.1042 0.066942 0.3567 -2.871232
2007-05-31 07:35:29 51°14.788 2°52.868 20.106 0.066942 0.3567 -2.871232
2007-05-31 07:35:35 51°14.789 2°52.831 20.1153 0.066942 0.356707 -2.871232
2007-05-31 07:35:40 51°14.79 2°52.8 20.0866 0.066942 0.356707 -2.871232
2007-05-31 07:35:45 51°14.79 2°52.769 20.0852 0.066942 0.356707 -2.871232
2007-05-31 07:35:50 51°14.79 2°52.738 20.0987 0.066942 0.356707 -2.871232
2007-05-31 07:35:55 51°14.789 2°52.707 20.0804 0.066942 0.356707 -2.871232
2007-05-31 07:35:59 51°14.789 2°52.682 20.0741 0.066942 0.356707 -2.871232
2007-05-31 07:36:05 51°14.788 2°52.644 20.0624 0.066942 0.356707 -2.871232
2007-05-31 07:36:10 51°14.788 2°52.613 20.0648 0.066942 0.356707 -2.871232
2007-05-31 07:36:15 51°14.788 2°52.582 20.0271 0.067045 0.357272 -2.871232
2007-05-31 07:36:20 51°14.788 2°52.551 20.0474 0.066942 0.356707 -2.871232
2007-05-31 07:36:25 51°14.789 2°52.52 20.0572 0.066942 0.356707 -2.871232
2007-05-31 07:36:30 51°14.789 2°52.488 20.0609 0.066942 0.356714 -2.871232
2007-05-31 07:36:35 51°14.79 2°52.457 20.061 0.066942 0.356714 -2.871232
2007-05-31 07:36:40 51°14.791 2°52.426 20.0877 0.066942 0.356714 -2.871232
2007-05-31 07:36:44 51°14.791 2°52.401 20.0887 0.066942 0.356721 -2.871232
2007-05-31 07:36:50 51°14.792 2°52.364 20.0815 0.066942 0.356727 -2.871232
2007-05-31 07:36:55 51°14.793 2°52.332 20.0762 0.066942 0.356734 -2.871232
2007-05-31 07:37:00 51°14.793 2°52.301 20.0903 0.066942 0.356734 -2.871232
2007-05-31 07:37:05 51°14.793 2°52.269 20.0979 0.066942 0.356741 -2.871232
2007-05-31 07:37:09 51°14.793 2°52.244 20.102 0.066942 0.356741 -2.871232
2007-05-31 07:37:15 51°14.793 2°52.206 20.09 0.066942 0.356741 -2.871232
2007-05-31 07:37:20 51°14.793 2°52.175 20.1029 0.067045 0.357306 -2.871232
2007-05-31 07:37:25 51°14.793 2°52.143 20.1006 0.066942 0.356748 -2.871232
2007-05-31 07:37:29 51°14.793 2°52.118 20.1124 0.066942 0.356748 -2.871232
2007-05-31 07:37:35 51°14.793 2°52.08 20.0648 0.067045 0.357313 -2.871232
2007-05-31 07:37:40 51°14.793 2°52.048 20.0735 0.067045 0.357313 -2.871232
2007-05-31 07:37:45 51°14.793 2°52.017 20.0593 0.067045 0.357313 -2.871232
2007-05-31 07:37:50 51°14.794 2°51.985 20.065 0.066942 0.356748 -2.871232
2007-05-31 07:37:55 51°14.794 2°51.954 20.0863 0.067045 0.357313 -2.871232
2007-05-31 07:38:00 51°14.795 2°51.922 20.0629 0.066942 0.356748 -2.871232
2007-05-31 07:38:05 51°14.796 2°51.891 20.0885 0.067045 0.35732 -2.871232
2007-05-31 07:38:09 51°14.797 2°51.866 20.1077 0.067045 0.35732 -2.871232
2007-05-31 07:38:15 51°14.797 2°51.828 20.0833 0.066942 0.356761 -2.871232
2007-05-31 07:38:20 51°14.798 2°51.797 20.1 0.067045 0.357327 -2.871232
2007-05-31 07:38:25 51°14.798 2°51.765 20.058 0.066942 0.356768 -2.871232
2007-05-31 07:38:30 51°14.799 2°51.734 20.082 0.066942 0.356768 -2.871232
2007-05-31 07:38:35 51°14.799 2°51.702 20.0843 0.066942 0.356775 -2.871232
2007-05-31 07:38:40 51°14.799 2°51.671 20.0708 0.066942 0.356775 -2.871232
2007-05-31 07:38:45 51°14.8 2°51.639 20.0519 0.066942 0.356775 -2.871232
2007-05-31 07:38:50 51°14.8 2°51.608 20.0841 0.066942 0.356775 -2.871232
2007-05-31 07:38:55 51°14.801 2°51.576 20.0741 0.066942 0.356782 -2.871232
2007-05-31 07:39:00 51°14.802 2°51.545 20.0655 0.066942 0.356782 -2.871232
2007-05-31 07:39:05 51°14.802 2°51.513 20.0814 0.066942 0.356782 -2.871232
2007-05-31 07:39:10 51°14.803 2°51.482 20.1039 0.066942 0.356782 -2.871232
2007-05-31 07:39:15 51°14.803 2°51.45 20.0822 0.066942 0.356789 -2.871232
2007-05-31 07:39:20 51°14.804 2°51.419 20.1059 0.066942 0.356795 -2.871232
2007-05-31 07:39:25 51°14.804 2°51.387 20.1127 0.066942 0.356795 -2.871232
2007-05-31 07:39:29 51°14.805 2°51.362 20.1007 0.066942 0.356795 -2.871232
2007-05-31 07:39:35 51°14.805 2°51.324 20.1102 0.066942 0.356795 -2.871232
2007-05-31 07:39:40 51°14.805 2°51.292 20.1036 0.066942 0.356795 -2.871232
2007-05-31 07:39:45 51°14.805 2°51.26 20.1122 0.066942 0.356802 -2.871232
2007-05-31 07:39:49 51°14.806 2°51.235 20.0758 0.066942 0.356802 -2.871232
2007-05-31 07:39:55 51°14.806 2°51.197 20.0774 0.066942 0.356802 -2.871232
2007-05-31 07:40:00 51°14.807 2°51.165 20.0817 0.066942 0.356802 -2.871232
2007-05-31 07:40:05 51°14.807 2°51.134 20.1009 0.066942 0.356809 -2.871232
2007-05-31 07:40:10 51°14.808 2°51.102 20.1088 0.066942 0.356809 -2.871232
2007-05-31 07:40:15 51°14.808 2°51.07 20.0816 0.066942 0.356809 -2.871232
2007-05-31 07:40:20 51°14.809 2°51.039 20.1205 0.066942 0.356816 -2.871232
2007-05-31 07:40:25 51°14.809 2°51.007 20.0815 0.066942 0.356823 -2.871232
2007-05-31 07:40:30 51°14.81 2°50.976 20.0874 0.066942 0.356823 -2.871232
2007-05-31 07:40:35 51°14.811 2°50.944 20.0943 0.066942 0.356823 -2.871232
2007-05-31 07:40:40 51°14.811 2°50.912 20.0891 0.066942 0.356823 -2.871232
2007-05-31 07:40:45 51°14.811 2°50.88 20.1162 0.066942 0.356829 -2.871232
2007-05-31 07:40:50 51°14.811 2°50.849 20.1426 0.066942 0.356829 -2.871232
2007-05-31 07:40:55 51°14.81 2°50.817 20.1357 0.066942 0.356843 -2.871232
2007-05-31 07:41:00 51°14.808 2°50.786 20.1221 0.066942 0.356843 -2.871232
2007-05-31 07:41:04 51°14.806 2°50.761 20.1176 0.066942 0.35685 -2.871232
2007-05-31 07:41:10 51°14.802 2°50.723 20.1013 0.066942 0.35685 -2.871232
2007-05-31 07:41:15 51°14.798 2°50.692 20.1302 0.066942 0.356843 -2.871232
2007-05-31 07:41:20 51°14.794 2°50.661 20.084 0.066942 0.35685 -2.871232
2007-05-31 07:41:25 51°14.79 2°50.63 20.1039 0.066942 0.356843 -2.871232
2007-05-31 07:41:30 51°14.786 2°50.598 20.1139 0.066942 0.356843 -2.871232
2007-05-31 07:41:35 51°14.781 2°50.567 20.1068 0.066942 0.35685 -2.871232
2007-05-31 07:41:40 51°14.776 2°50.536 20.1089 0.066942 0.35685 -2.871232
2007-05-31 07:41:45 51°14.772 2°50.505 20.1014 0.066942 0.35685 -2.871232
2007-05-31 07:41:49 51°14.768 2°50.481 20.1176 0.066942 0.356857 -2.871232
2007-05-31 07:41:55 51°14.762 2°50.444 20.0864 0.066942 0.356857 -2.871232
2007-05-31 07:42:00 51°14.757 2°50.413 20.1096 0.066942 0.356863 -2.871232
2007-05-31 07:42:05 51°14.752 2°50.382 20.0867 0.066942 0.356863 -2.871232
2007-05-31 07:42:09 51°14.748 2°50.357 20.1113 0.066942 0.356863 -2.871232
2007-05-31 07:42:15 51°14.742 2°50.32 20.0753 0.066942 0.35687 -2.871232
2007-05-31 07:42:20 51°14.737 2°50.288 20.0987 0.066942 0.35687 -2.871232
2007-05-31 07:42:25 51°14.733 2°50.257 20.1064 0.066942 0.35687 -2.871232
2007-05-31 07:42:30 51°14.729 2°50.226 20.106 0.066942 0.35687 -2.871232
2007-05-31 07:42:35 51°14.724 2°50.195 20.1137 0.066942 0.356877 -2.871232
2007-05-31 07:42:40 51°14.72 2°50.163 20.1051 0.066942 0.356877 -2.871232
2007-05-31 07:42:45 51°14.716 2°50.132 20.1239 0.066942 0.356884 -2.871232
2007-05-31 07:42:50 51°14.712 2°50.101 20.1049 0.066942 0.356884 -2.871232
2007-05-31 07:42:55 51°14.708 2°50.069 20.0995 0.066942 0.356891 -2.871232
2007-05-31 07:43:00 51°14.703 2°50.038 20.1322 0.066942 0.356891 -2.871232
2007-05-31 07:43:05 51°14.699 2°50.007 20.1039 0.066942 0.356897 -2.871232
2007-05-31 07:43:10 51°14.695 2°49.976 20.0981 0.066942 0.356897 -2.871232
2007-05-31 07:43:15 51°14.69 2°49.944 20.109 0.066942 0.356891 -2.871232
2007-05-31 07:43:20 51°14.686 2°49.913 20.0948 0.066942 0.356897 -2.871232
2007-05-31 07:43:25 51°14.682 2°49.882 20.1126 0.066942 0.356904 -2.871232
2007-05-31 07:43:30 51°14.678 2°49.851 20.1118 0.066942 0.356897 -2.871232
2007-05-31 07:43:35 51°14.673 2°49.82 20.1104 0.066942 0.356904 -2.871232
2007-05-31 07:43:40 51°14.669 2°49.788 20.1188 0.066942 0.356904 -2.871232
2007-05-31 07:43:45 51°14.665 2°49.757 20.0975 0.066942 0.356911 -2.871232
2007-05-31 07:43:50 51°14.66 2°49.726 20.1149 0.066942 0.356911 -2.871232
2007-05-31 07:43:55 51°14.656 2°49.695 20.1145 0.066942 0.356911 -2.871232
2007-05-31 07:44:00 51°14.652 2°49.664 20.1216 0.066942 0.356918 -2.871232
2007-05-31 07:44:05 51°14.647 2°49.633 20.0995 0.066942 0.356918 -2.871232
2007-05-31 07:44:09 51°14.644 2°49.608 20.123 0.066942 0.356918 -2.871232
2007-05-31 07:44:15 51°14.639 2°49.571 20.1042 0.066942 0.356925 -2.871232
2007-05-31 07:44:20 51°14.634 2°49.539 20.1068 0.066942 0.356932 -2.871232
2007-05-31 07:44:25 51°14.63 2°49.508 20.1172 0.066942 0.356932 -2.871232
2007-05-31 07:44:30 51°14.626 2°49.477 20.1131 0.066942 0.356932 -2.871232
2007-05-31 07:44:35 51°14.622 2°49.446 20.1259 0.066942 0.356938 -2.871232
2007-05-31 07:44:40 51°14.618 2°49.415 20.1098 0.066942 0.356938 -2.871232
2007-05-31 07:44:45 51°14.613 2°49.383 20.079 0.066942 0.356938 -2.871232
2007-05-31 07:44:49 51°14.61 2°49.358 20.1194 0.066942 0.356945 -2.871232
2007-05-31 07:44:55 51°14.605 2°49.321 20.1171 0.066942 0.356945 -2.871232
2007-05-31 07:45:00 51°14.6 2°49.29 20.1133 0.066942 0.356945 -2.871232
2007-05-31 07:45:05 51°14.596 2°49.258 20.1146 0.066942 0.356952 -2.871232
2007-05-31 07:45:10 51°14.592 2°49.227 20.11 0.066942 0.356952 -2.871232
2007-05-31 07:45:15 51°14.588 2°49.196 20.1077 0.066942 0.356952 -2.871232
2007-05-31 07:45:20 51°14.584 2°49.164 20.1306 0.066942 0.356952 -2.871232
2007-05-31 07:45:25 51°14.579 2°49.133 20.11 0.066942 0.356952 -2.871232
2007-05-31 07:45:30 51°14.575 2°49.101 20.1312 0.066942 0.356959 -2.871232
2007-05-31 07:45:35 51°14.571 2°49.07 20.0937 0.066942 0.356959 -2.871232
2007-05-31 07:45:40 51°14.567 2°49.038 20.1245 0.066942 0.356959 -2.871232
2007-05-31 07:45:45 51°14.562 2°49.007 20.1205 0.066942 0.356966 -2.871232
2007-05-31 07:45:50 51°14.558 2°48.976 20.1125 0.066942 0.356972 -2.871232
2007-05-31 07:45:55 51°14.554 2°48.944 20.1093 0.066942 0.356972 -2.871232
2007-05-31 07:46:00 51°14.55 2°48.913 20.1199 0.066942 0.356972 -2.871232
2007-05-31 07:46:05 51°14.545 2°48.881 20.0936 0.066942 0.356979 -2.871232
2007-05-31 07:46:10 51°14.541 2°48.85 20.1392 0.066942 0.356979 -2.871232
2007-05-31 07:46:15 51°14.537 2°48.818 20.1021 0.066942 0.356986 -2.871232
2007-05-31 07:46:20 51°14.533 2°48.787 20.1325 0.066942 0.356986 -2.871232
2007-05-31 07:46:25 51°14.529 2°48.755 20.1361 0.066942 0.356993 -2.871232
2007-05-31 07:46:29 51°14.526 2°48.73 20.1436 0.066942 0.356986 -2.871232
2007-05-31 07:46:35 51°14.521 2°48.692 20.1449 0.066942 0.356993 -2.871232
2007-05-31 07:46:40 51°14.516 2°48.661 20.1217 0.066942 0.356993 -2.871232
2007-05-31 07:46:45 51°14.512 2°48.629 20.1483 0.066942 0.356993 -2.871232
2007-05-31 07:46:50 51°14.508 2°48.598 20.1388 0.066942 0.356993 -2.871232
2007-05-31 07:46:55 51°14.504 2°48.566 20.1199 0.066942 0.357 -2.871232
2007-05-31 07:47:00 51°14.499 2°48.535 20.1059 0.066942 0.357 -2.871232
2007-05-31 07:47:05 51°14.495 2°48.504 20.1222 0.066942 0.357 -2.871232
2007-05-31 07:47:10 51°14.491 2°48.472 20.1492 0.066942 0.357 -2.871232
2007-05-31 07:47:15 51°14.486 2°48.441 20.1468 0.066942 0.357006 -2.871232
2007-05-31 07:47:20 51°14.481 2°48.41 20.1272 0.066942 0.357013 -2.871232
2007-05-31 07:47:25 51°14.476 2°48.379 20.1417 0.066942 0.357013 -2.871232
2007-05-31 07:47:30 51°14.471 2°48.348 20.1459 0.066942 0.35702 -2.871232
2007-05-31 07:47:35 51°14.466 2°48.317 20.117 0.066942 0.35702 -2.871232
2007-05-31 07:47:40 51°14.462 2°48.286 20.1163 0.066942 0.35702 -2.871232
2007-05-31 07:47:45 51°14.456 2°48.255 20.0971 0.066942 0.35702 -2.871232
2007-05-31 07:47:50 51°14.451 2°48.224 20.1329 0.066942 0.35702 -2.871232
2007-05-31 07:47:55 51°14.447 2°48.193 20.1172 0.066942 0.357027 -2.871232
2007-05-31 07:48:00 51°14.442 2°48.161 20.149 0.066942 0.357027 -2.871232
2007-05-31 07:48:05 51°14.437 2°48.13 20.1305 0.066942 0.357027 -2.871232
2007-05-31 07:48:10 51°14.433 2°48.099 20.1535 0.066942 0.357027 -2.871232
2007-05-31 07:48:15 51°14.428 2°48.068 20.1408 0.066942 0.357034 -2.871232
2007-05-31 07:48:19 51°14.424 2°48.043 20.1407 0.066942 0.357034 -2.871232
2007-05-31 07:48:24 51°14.419 2°48.013 20.1438 0.066942 0.35704 -2.871232
2007-05-31 07:48:29 51°14.415 2°47.982 20.1459 0.066942 0.35704 -2.871232
2007-05-31 07:48:35 51°14.409 2°47.945 20.1376 0.066942 0.357047 -2.871232
2007-05-31 07:48:40 51°14.403 2°47.914 20.1319 0.066942 0.357047 -2.871232
2007-05-31 07:48:44 51°14.4 2°47.889 20.1456 0.066942 0.35704 -2.871232
2007-05-31 07:48:49 51°14.395 2°47.858 20.147 0.066942 0.357047 -2.871232
2007-05-31 07:48:55 51°14.389 2°47.821 20.1242 0.066942 0.357054 -2.871232
2007-05-31 07:49:00 51°14.384 2°47.79 20.136 0.066942 0.357054 -2.871232
2007-05-31 07:49:04 51°14.38 2°47.765 20.1447 0.066942 0.357054 -2.871232
2007-05-31 07:49:09 51°14.376 2°47.735 20.1441 0.066942 0.357054 -2.871232
2007-05-31 07:49:14 51°14.371 2°47.704 20.1592 0.066942 0.357054 -2.871232
2007-05-31 07:49:20 51°14.365 2°47.667 20.1581 0.066942 0.357061 -2.871232
2007-05-31 07:49:25 51°14.36 2°47.636 20.1541 0.066942 0.357068 -2.871232
2007-05-31 07:49:29 51°14.357 2°47.611 20.1566 0.066942 0.357068 -2.871232
2007-05-31 07:49:35 51°14.351 2°47.575 20.1515 0.066942 0.357068 -2.871232
2007-05-31 07:49:40 51°14.346 2°47.544 20.1388 0.066942 0.357068 -2.871232
2007-05-31 07:49:45 51°14.341 2°47.513 20.1602 0.066942 0.357068 -2.871232
2007-05-31 07:49:49 51°14.337 2°47.489 20.1149 0.066942 0.357075 -2.871232
2007-05-31 07:49:55 51°14.331 2°47.452 20.1566 0.066942 0.357081 -2.871232
2007-05-31 07:49:59 51°14.327 2°47.428 20.1429 0.066942 0.357081 -2.871232
2007-05-31 07:50:05 51°14.321 2°47.391 20.1385 0.066942 0.357081 -2.871232
2007-05-31 07:50:09 51°14.318 2°47.367 20.141 0.066942 0.357081 -2.871232
2007-05-31 07:50:15 51°14.312 2°47.331 20.1436 0.066942 0.357088 -2.871232
2007-05-31 07:50:20 51°14.307 2°47.3 20.1514 0.066942 0.357088 -2.871232
2007-05-31 07:50:24 51°14.304 2°47.276 20.1583 0.066942 0.357088 -2.871232
2007-05-31 07:50:29 51°14.299 2°47.245 20.1621 0.066942 0.357095 -2.871232
2007-05-31 07:50:35 51°14.294 2°47.209 20.1472 0.066942 0.357095 -2.871232
2007-05-31 07:50:39 51°14.29 2°47.185 20.1462 0.066942 0.357095 -2.871232
2007-05-31 07:50:44 51°14.285 2°47.154 20.1351 0.066942 0.357102 -2.871232
2007-05-31 07:50:50 51°14.28 2°47.118 20.1736 0.066942 0.357102 -2.871232
2007-05-31 07:50:55 51°14.275 2°47.088 20.1656 0.066942 0.357109 -2.871232
2007-05-31 07:51:00 51°14.27 2°47.058 20.1373 0.066942 0.357109 -2.871232
2007-05-31 07:51:05 51°14.266 2°47.028 20.1496 0.066942 0.357109 -2.871232
2007-05-31 07:51:09 51°14.262 2°47.003 20.1522 0.066942 0.357109 -2.871232
2007-05-31 07:51:15 51°14.257 2°46.967 20.1706 0.066942 0.357109 -2.871232
2007-05-31 07:51:20 51°14.252 2°46.936 20.1432 0.066942 0.357115 -2.871232
2007-05-31 07:51:24 51°14.249 2°46.912 20.1522 0.066942 0.357115 -2.871232
2007-05-31 07:51:29 51°14.245 2°46.882 20.1528 0.066942 0.357122 -2.871232
2007-05-31 07:51:34 51°14.241 2°46.851 20.1589 0.066942 0.357122 -2.871232
2007-05-31 07:51:40 51°14.235 2°46.814 20.1609 0.066942 0.357122 -2.871232
2007-05-31 07:51:45 51°14.231 2°46.783 20.1671 0.066942 0.357129 -2.871232
2007-05-31 07:51:49 51°14.228 2°46.759 20.181 0.066942 0.357129 -2.871232
2007-05-31 07:51:54 51°14.223 2°46.728 20.1487 0.066942 0.357136 -2.871232
2007-05-31 07:51:59 51°14.219 2°46.698 20.1786 0.066942 0.357136 -2.871232
2007-05-31 07:52:05 51°14.212 2°46.661 20.1509 0.066942 0.357143 -2.871232
2007-05-31 07:52:09 51°14.208 2°46.637 20.1725 0.066942 0.357143 -2.871232
2007-05-31 07:52:15 51°14.201 2°46.601 20.1496 0.066942 0.357143 -2.871232
2007-05-31 07:52:19 51°14.197 2°46.576 20.189 0.066942 0.35715 -2.871232
2007-05-31 07:52:25 51°14.19 2°46.54 20.1636 0.066839 0.35659 -2.871232
2007-05-31 07:52:30 51°14.184 2°46.51 20.1571 0.066942 0.35715 -2.871232
2007-05-31 07:52:35 51°14.178 2°46.48 20.166 0.066942 0.357156 -2.871232
2007-05-31 07:52:39 51°14.173 2°46.455 20.1583 0.066942 0.357156 -2.871232
2007-05-31 07:52:44 51°14.168 2°46.425 20.166 0.066942 0.357156 -2.871232
2007-05-31 07:52:49 51°14.162 2°46.395 20.1495 0.066942 0.357156 -2.871232
2007-05-31 07:52:55 51°14.156 2°46.358 20.1674 0.066839 0.35659 -2.871232
2007-05-31 07:53:00 51°14.15 2°46.328 20.1705 0.066942 0.357163 -2.871232
2007-05-31 07:53:04 51°14.146 2°46.303 20.1752 0.066942 0.357163 -2.871232
2007-05-31 07:53:09 51°14.141 2°46.272 20.1829 0.066942 0.357163 -2.871232
2007-05-31 07:53:15 51°14.134 2°46.236 20.1613 0.066942 0.35717 -2.871232
2007-05-31 07:53:19 51°14.129 2°46.212 20.1604 0.066839 0.356611 -2.871232
2007-05-31 07:53:24 51°14.124 2°46.181 20.1736 0.066942 0.357177 -2.871232
2007-05-31 07:53:29 51°14.118 2°46.151 20.1634 0.066942 0.357177 -2.871232
2007-05-31 07:53:35 51°14.111 2°46.114 20.168 0.066942 0.357184 -2.871232
2007-05-31 07:53:40 51°14.105 2°46.084 20.152 0.066942 0.357184 -2.871232
2007-05-31 07:53:45 51°14.099 2°46.053 20.18 0.066942 0.357184 -2.871232
2007-05-31 07:53:49 51°14.094 2°46.029 20.1358 0.066942 0.35719 -2.871232
2007-05-31 07:53:55 51°14.088 2°45.992 20.1805 0.066942 0.35719 -2.871232
2007-05-31 07:54:00 51°14.082 2°45.962 20.1544 0.066942 0.35719 -2.871232
2007-05-31 07:54:04 51°14.078 2°45.937 20.1794 0.066839 0.356631 -2.871232
2007-05-31 07:54:09 51°14.072 2°45.907 20.1737 0.066839 0.356631 -2.871232
2007-05-31 07:54:14 51°14.066 2°45.876 20.1566 0.066839 0.356631 -2.871232
2007-05-31 07:54:20 51°14.06 2°45.84 20.1831 0.066942 0.357197 -2.871232
2007-05-31 07:54:25 51°14.053 2°45.81 20.1691 0.066942 0.357204 -2.871232
2007-05-31 07:54:29 51°14.049 2°45.785 20.1889 0.066839 0.356638 -2.871232
2007-05-31 07:54:35 51°14.042 2°45.749 20.188 0.066942 0.357211 -2.871232
2007-05-31 07:54:39 51°14.037 2°45.724 20.1821 0.066942 0.357211 -2.871232
2007-05-31 07:54:45 51°14.03 2°45.688 20.1818 0.066942 0.357211 -2.871232
2007-05-31 07:54:49 51°14.026 2°45.663 20.1818 0.066839 0.356645 -2.871232
2007-05-31 07:54:55 51°14.019 2°45.627 20.1916 0.066839 0.356652 -2.871232
2007-05-31 07:54:59 51°14.014 2°45.603 20.179 0.066942 0.357218 -2.871232
2007-05-31 07:55:04 51°14.008 2°45.572 20.1814 0.066839 0.356658 -2.871232
2007-05-31 07:55:10 51°14.001 2°45.536 20.2024 0.066839 0.356658 -2.871232
2007-05-31 07:55:15 51°13.996 2°45.506 20.1759 0.066839 0.356665 -2.871232
2007-05-31 07:55:20 51°13.99 2°45.475 20.1848 0.066839 0.356665 -2.871232
2007-05-31 07:55:24 51°13.985 2°45.451 20.1888 0.066839 0.356665 -2.871232
2007-05-31 07:55:29 51°13.98 2°45.42 20.1904 0.066942 0.357238 -2.871232
2007-05-31 07:55:35 51°13.973 2°45.384 20.2031 0.066839 0.356672 -2.871232
2007-05-31 07:55:40 51°13.967 2°45.354 20.1757 0.066839 0.356672 -2.871232
2007-05-31 07:55:44 51°13.962 2°45.33 20.1947 0.066839 0.356672 -2.871232
2007-05-31 07:55:49 51°13.956 2°45.299 20.1951 0.066839 0.356679 -2.871232
2007-05-31 07:55:55 51°13.949 2°45.263 20.1989 0.066839 0.356679 -2.871232
2007-05-31 07:56:00 51°13.943 2°45.232 20.1951 0.066839 0.356686 -2.871232
2007-05-31 07:56:05 51°13.937 2°45.202 20.1878 0.066839 0.356686 -2.871232
2007-05-31 07:56:09 51°13.933 2°45.178 20.1996 0.066839 0.356686 -2.871232
2007-05-31 07:56:15 51°13.926 2°45.141 20.183 0.066839 0.356686 -2.871232
2007-05-31 07:56:20 51°13.92 2°45.111 20.1874 0.066839 0.356686 -2.871232
2007-05-31 07:56:25 51°13.914 2°45.08 20.1909 0.066942 0.357259 -2.871232
2007-05-31 07:56:29 51°13.91 2°45.056 20.2025 0.066839 0.356699 -2.871232
2007-05-31 07:56:35 51°13.902 2°45.02 20.1851 0.066839 0.356699 -2.871232
2007-05-31 07:56:39 51°13.898 2°44.996 20.1969 0.066839 0.356699 -2.871232
2007-05-31 07:56:45 51°13.891 2°44.959 20.1822 0.066839 0.356699 -2.871232
2007-05-31 07:56:49 51°13.886 2°44.935 20.1915 0.066839 0.356706 -2.871232
2007-05-31 07:56:55 51°13.879 2°44.898 20.1978 0.066942 0.357272 -2.871232
2007-05-31 07:56:59 51°13.875 2°44.874 20.2144 0.066839 0.356713 -2.871232
2007-05-31 07:57:05 51°13.868 2°44.838 20.2062 0.066839 0.356713 -2.871232
2007-05-31 07:57:09 51°13.863 2°44.814 20.195 0.066839 0.356713 -2.871232
2007-05-31 07:57:15 51°13.856 2°44.777 20.2115 0.066839 0.35672 -2.871232
2007-05-31 07:57:19 51°13.852 2°44.753 20.2168 0.066839 0.35672 -2.871232
2007-05-31 07:57:24 51°13.846 2°44.723 20.2137 0.066839 0.35672 -2.871232
2007-05-31 07:57:30 51°13.839 2°44.687 20.2022 0.066942 0.357293 -2.871232
2007-05-31 07:57:35 51°13.833 2°44.657 20.1881 0.066839 0.356727 -2.871232
2007-05-31 07:57:40 51°13.828 2°44.627 20.2117 0.066839 0.356727 -2.871232
2007-05-31 07:57:44 51°13.823 2°44.603 20.2176 0.066839 0.356733 -2.871232
2007-05-31 07:57:50 51°13.816 2°44.567 20.2115 0.066839 0.356733 -2.871232
2007-05-31 07:57:55 51°13.811 2°44.537 20.2191 0.066839 0.356733 -2.871232
2007-05-31 07:58:00 51°13.805 2°44.507 20.2115 0.066839 0.356733 -2.871232
2007-05-31 07:58:04 51°13.8 2°44.484 20.213 0.066839 0.35674 -2.871232
2007-05-31 07:58:09 51°13.795 2°44.454 20.2137 0.066839 0.35674 -2.871232
2007-05-31 07:58:14 51°13.789 2°44.424 20.213 0.066942 0.357306 -2.871232
2007-05-31 07:58:20 51°13.783 2°44.389 20.2259 0.066839 0.35674 -2.871232
2007-05-31 07:58:25 51°13.777 2°44.359 20.1965 0.066839 0.356747 -2.871232
2007-05-31 07:58:29 51°13.773 2°44.336 20.2198 0.066839 0.356747 -2.871232
2007-05-31 07:58:34 51°13.767 2°44.306 20.2219 0.066839 0.356754 -2.871232
2007-05-31 07:58:40 51°13.76 2°44.271 20.2173 0.066839 0.356754 -2.871232
2007-05-31 07:58:45 51°13.755 2°44.242 20.2201 0.066839 0.356761 -2.871232
2007-05-31 07:58:49 51°13.75 2°44.219 20.2239 0.066839 0.356761 -2.871232
2007-05-31 07:58:55 51°13.743 2°44.184 20.215 0.066839 0.356767 -2.871232
2007-05-31 07:58:59 51°13.739 2°44.16 20.2246 0.066839 0.356767 -2.871232
2007-05-31 07:59:05 51°13.732 2°44.126 20.216 0.066839 0.356767 -2.871232
2007-05-31 07:59:10 51°13.726 2°44.096 20.2127 0.066839 0.356767 -2.871232
2007-05-31 07:59:15 51°13.721 2°44.067 20.2307 0.066839 0.356767 -2.871232
2007-05-31 07:59:19 51°13.716 2°44.044 20.2083 0.066839 0.356774 -2.871232
2007-05-31 07:59:25 51°13.709 2°44.009 20.2243 0.066839 0.356774 -2.871232
2007-05-31 07:59:29 51°13.704 2°43.986 20.2246 0.066839 0.356781 -2.871232
2007-05-31 07:59:35 51°13.698 2°43.952 20.2138 0.066839 0.356781 -2.871232
2007-05-31 07:59:40 51°13.693 2°43.922 20.2246 0.066839 0.356781 -2.871232
2007-05-31 07:59:44 51°13.688 2°43.899 20.1811 0.066839 0.356781 -2.871232
2007-05-31 07:59:50 51°13.683 2°43.864 20.2157 0.066839 0.356781 -2.871232
2007-05-31 07:59:55 51°13.678 2°43.835 20.2175 0.066839 0.356788 -2.871232
2007-05-31 07:59:59 51°13.674 2°43.811 20.2246 0.066839 0.356788 -2.871232
2007-05-31 08:00:04 51°13.67 2°43.781 20.2171 0.066839 0.356795 -2.871232
2007-05-31 08:00:10 51°13.665 2°43.745 20.2283 0.066839 0.356795 -2.871232
2007-05-31 08:00:15 51°13.661 2°43.715 20.2221 0.066839 0.356795 -2.871232
2007-05-31 08:00:20 51°13.657 2°43.685 20.2282 0.066839 0.356801 -2.871232
2007-05-31 08:00:25 51°13.652 2°43.654 20.2366 0.066839 0.356808 -2.871232
2007-05-31 08:00:29 51°13.648 2°43.63 20.2526 0.066839 0.356808 -2.871232
2007-05-31 08:00:35 51°13.642 2°43.594 20.2439 0.066839 0.356815 -2.871232
2007-05-31 08:00:40 51°13.637 2°43.564 20.2365 0.066839 0.356815 -2.871232
2007-05-31 08:00:45 51°13.631 2°43.534 20.2513 0.066839 0.356815 -2.871232
2007-05-31 08:00:49 51°13.627 2°43.511 20.2442 0.066839 0.356822 -2.871232
2007-05-31 08:00:54 51°13.621 2°43.481 20.2533 0.066839 0.356822 -2.871232
2007-05-31 08:01:00 51°13.614 2°43.445 20.2351 0.066839 0.356822 -2.871232
2007-05-31 08:01:05 51°13.608 2°43.415 20.239 0.066839 0.356829 -2.871232
2007-05-31 08:01:09 51°13.604 2°43.391 20.2314 0.066839 0.356829 -2.871232
2007-05-31 08:01:15 51°13.597 2°43.355 20.2267 0.066839 0.356829 -2.871232
2007-05-31 08:01:19 51°13.593 2°43.331 20.2505 0.066839 0.356829 -2.871232
2007-05-31 08:01:25 51°13.587 2°43.295 20.222 0.066839 0.356836 -2.871232
2007-05-31 08:01:30 51°13.582 2°43.265 20.2448 0.066839 0.356836 -2.871232
2007-05-31 08:01:35 51°13.576 2°43.235 20.2252 0.066839 0.356842 -2.871232
2007-05-31 08:01:39 51°13.572 2°43.211 20.2502 0.066839 0.356842 -2.871232
2007-05-31 08:01:45 51°13.565 2°43.175 20.2412 0.066839 0.356849 -2.871232
2007-05-31 08:01:50 51°13.56 2°43.145 20.2462 0.066839 0.356849 -2.871232
2007-05-31 08:01:55 51°13.554 2°43.115 20.2485 0.066839 0.356849 -2.871232
2007-05-31 08:02:00 51°13.549 2°43.085 20.2478 0.066839 0.356856 -2.871232
2007-05-31 08:02:04 51°13.545 2°43.062 20.2359 0.066839 0.356856 -2.871232
2007-05-31 08:02:10 51°13.538 2°43.026 20.2331 0.066839 0.356856 -2.871232
2007-05-31 08:02:15 51°13.533 2°42.996 20.2551 0.066839 0.356863 -2.871232
2007-05-31 08:02:20 51°13.527 2°42.966 20.253 0.066839 0.356863 -2.871232
2007-05-31 08:02:24 51°13.523 2°42.942 20.2459 0.066839 0.35687 -2.871232
2007-05-31 08:02:29 51°13.518 2°42.912 20.2622 0.066839 0.35687 -2.871232
2007-05-31 08:02:35 51°13.511 2°42.876 20.2486 0.066839 0.356876 -2.871232
2007-05-31 08:02:40 51°13.506 2°42.846 20.2437 0.066839 0.356876 -2.871232
2007-05-31 08:02:45 51°13.5 2°42.816 20.2577 0.066839 0.356876 -2.871232
2007-05-31 08:02:49 51°13.496 2°42.792 20.2575 0.066839 0.356876 -2.871232
2007-05-31 08:02:55 51°13.489 2°42.756 20.2443 0.066839 0.356883 -2.871232
2007-05-31 08:03:00 51°13.484 2°42.726 20.2273 0.066839 0.356883 -2.871232
2007-05-31 08:03:05 51°13.478 2°42.696 20.2591 0.066839 0.35689 -2.871232
2007-05-31 08:03:09 51°13.473 2°42.672 20.2516 0.066839 0.35689 -2.871232
2007-05-31 08:03:15 51°13.467 2°42.636 20.2526 0.066839 0.35689 -2.871232
2007-05-31 08:03:20 51°13.461 2°42.606 20.2638 0.066839 0.35689 -2.871232
2007-05-31 08:03:25 51°13.456 2°42.576 20.2264 0.066839 0.356897 -2.871232
2007-05-31 08:03:29 51°13.452 2°42.552 20.2617 0.066839 0.356897 -2.871232
2007-05-31 08:03:35 51°13.445 2°42.516 20.2665 0.066839 0.356897 -2.871232
2007-05-31 08:03:40 51°13.44 2°42.486 20.2673 0.066839 0.356897 -2.871232
2007-05-31 08:03:45 51°13.434 2°42.456 20.2459 0.066839 0.356911 -2.871232
2007-05-31 08:03:49 51°13.429 2°42.432 20.2654 0.066839 0.356911 -2.871232
2007-05-31 08:03:55 51°13.422 2°42.396 20.2457 0.066839 0.356917 -2.871232
2007-05-31 08:03:59 51°13.418 2°42.372 20.2725 0.066839 0.356917 -2.871232
2007-05-31 08:04:05 51°13.411 2°42.336 20.2599 0.066839 0.356924 -2.871232
2007-05-31 08:04:10 51°13.405 2°42.306 20.2555 0.066839 0.356924 -2.871232
2007-05-31 08:04:15 51°13.399 2°42.276 20.2496 0.066839 0.356924 -2.871232
2007-05-31 08:04:20 51°13.393 2°42.246 20.2638 0.066839 0.356924 -2.871232
2007-05-31 08:04:25 51°13.387 2°42.216 20.2636 0.066839 0.356931 -2.871232
2007-05-31 08:04:30 51°13.381 2°42.186 20.2695 0.066839 0.356931 -2.871232
2007-05-31 08:04:35 51°13.375 2°42.156 20.2626 0.066839 0.356931 -2.871232
2007-05-31 08:04:40 51°13.369 2°42.125 20.2563 0.066839 0.356931 -2.871232
2007-05-31 08:04:44 51°13.365 2°42.101 20.2449 0.066839 0.356931 -2.871232
2007-05-31 08:04:49 51°13.359 2°42.071 20.2781 0.066839 0.356938 -2.871232
2007-05-31 08:04:55 51°13.352 2°42.035 20.2665 0.066839 0.356945 -2.871232
2007-05-31 08:05:00 51°13.346 2°42.004 20.2648 0.066839 0.356945 -2.871232
2007-05-31 08:05:05 51°13.34 2°41.974 20.2588 0.066839 0.356945 -2.871232
2007-05-31 08:05:09 51°13.335 2°41.95 20.286 0.066839 0.356945 -2.871232
2007-05-31 08:05:15 51°13.328 2°41.913 20.2885 0.066839 0.356952 -2.871232
2007-05-31 08:05:20 51°13.323 2°41.883 20.2587 0.066839 0.356958 -2.871232
2007-05-31 08:05:25 51°13.317 2°41.853 20.2746 0.066839 0.356958 -2.871232
2007-05-31 08:05:29 51°13.312 2°41.828 20.2791 0.066839 0.356958 -2.871232
2007-05-31 08:05:35 51°13.305 2°41.792 20.276 0.066839 0.356965 -2.871232
2007-05-31 08:05:40 51°13.3 2°41.761 20.2741 0.066839 0.356965 -2.871232
2007-05-31 08:05:45 51°13.294 2°41.731 20.2789 0.066839 0.356965 -2.871232
2007-05-31 08:05:50 51°13.289 2°41.7 20.2875 0.066839 0.356972 -2.871232
2007-05-31 08:05:55 51°13.283 2°41.67 20.2624 0.066839 0.356972 -2.871232
2007-05-31 08:06:00 51°13.277 2°41.639 20.2885 0.066839 0.356979 -2.871232
2007-05-31 08:06:05 51°13.271 2°41.609 20.27 0.066839 0.356979 -2.871232
2007-05-31 08:06:09 51°13.267 2°41.585 20.2827 0.066839 0.356979 -2.871232
2007-05-31 08:06:15 51°13.26 2°41.548 20.2791 0.066839 0.356986 -2.871232
2007-05-31 08:06:20 51°13.254 2°41.518 20.2832 0.066839 0.356986 -2.871232
2007-05-31 08:06:24 51°13.249 2°41.493 20.2602 0.066839 0.356992 -2.871232
2007-05-31 08:06:30 51°13.242 2°41.457 20.2732 0.066839 0.356992 -2.871232
2007-05-31 08:06:35 51°13.236 2°41.427 20.2623 0.066839 0.356992 -2.871232
2007-05-31 08:06:39 51°13.232 2°41.402 20.2931 0.066839 0.356992 -2.871232
2007-05-31 08:06:44 51°13.226 2°41.372 20.2846 0.066839 0.356999 -2.871232
2007-05-31 08:06:50 51°13.219 2°41.335 20.2836 0.066839 0.356999 -2.871232
2007-05-31 08:06:55 51°13.213 2°41.305 20.2971 0.066839 0.357006 -2.871232
2007-05-31 08:07:00 51°13.207 2°41.275 20.2843 0.066839 0.357006 -2.871232
2007-05-31 08:07:05 51°13.201 2°41.245 20.3055 0.066839 0.357013 -2.871232
2007-05-31 08:07:09 51°13.197 2°41.22 20.3027 0.066839 0.357013 -2.871232
2007-05-31 08:07:15 51°13.189 2°41.184 20.2835 0.066839 0.35702 -2.871232
2007-05-31 08:07:20 51°13.183 2°41.154 20.2944 0.066839 0.35702 -2.871232
2007-05-31 08:07:24 51°13.178 2°41.13 20.2741 0.066839 0.35702 -2.871232
2007-05-31 08:07:29 51°13.173 2°41.099 20.3012 0.066839 0.357027 -2.871232
2007-05-31 08:07:34 51°13.166 2°41.069 20.2625 0.066839 0.357027 -2.871232
2007-05-31 08:07:40 51°13.159 2°41.033 20.2911 0.066839 0.357027 -2.871232
2007-05-31 08:07:45 51°13.153 2°41.003 20.2612 0.066839 0.357027 -2.871232
2007-05-31 08:07:49 51°13.149 2°40.978 20.2948 0.066839 0.357033 -2.871232
2007-05-31 08:07:55 51°13.142 2°40.942 20.2903 0.066839 0.35704 -2.871232
2007-05-31 08:08:00 51°13.136 2°40.911 20.2743 0.066839 0.35704 -2.871232
2007-05-31 08:08:05 51°13.13 2°40.881 20.2814 0.066839 0.357047 -2.871232
2007-05-31 08:08:09 51°13.126 2°40.857 20.2856 0.066839 0.357047 -2.871232
2007-05-31 08:08:15 51°13.119 2°40.82 20.2933 0.066839 0.357047 -2.871232
2007-05-31 08:08:19 51°13.114 2°40.796 20.2881 0.066839 0.357054 -2.871232
2007-05-31 08:08:25 51°13.107 2°40.759 20.2875 0.066839 0.357054 -2.871232
2007-05-31 08:08:30 51°13.101 2°40.729 20.2812 0.066839 0.357054 -2.871232
2007-05-31 08:08:35 51°13.096 2°40.699 20.3081 0.066839 0.357061 -2.871232
2007-05-31 08:08:40 51°13.09 2°40.668 20.2906 0.066839 0.357061 -2.871232
2007-05-31 08:08:45 51°13.084 2°40.638 20.3142 0.066839 0.357061 -2.871232
2007-05-31 08:08:50 51°13.078 2°40.608 20.2789 0.066839 0.357068 -2.871232
2007-05-31 08:08:55 51°13.072 2°40.577 20.3005 0.066839 0.357068 -2.871232
2007-05-31 08:09:00 51°13.066 2°40.547 20.3033 0.066839 0.357074 -2.871232
2007-05-31 08:09:04 51°13.062 2°40.523 20.3108 0.066839 0.357074 -2.871232
2007-05-31 08:09:10 51°13.054 2°40.487 20.2882 0.066839 0.357074 -2.871232
2007-05-31 08:09:15 51°13.048 2°40.456 20.3079 0.066839 0.357074 -2.871232
2007-05-31 08:09:20 51°13.042 2°40.426 20.3048 0.066839 0.357081 -2.871232
2007-05-31 08:09:25 51°13.037 2°40.396 20.3031 0.066839 0.357081 -2.871232
2007-05-31 08:09:29 51°13.032 2°40.371 20.3009 0.066839 0.357088 -2.871232
2007-05-31 08:09:35 51°13.025 2°40.335 20.3034 0.066839 0.357088 -2.871232
2007-05-31 08:09:40 51°13.019 2°40.305 20.3082 0.066839 0.357088 -2.871232
2007-05-31 08:09:45 51°13.013 2°40.275 20.3119 0.066839 0.357095 -2.871232
2007-05-31 08:09:49 51°13.008 2°40.251 20.3115 0.066839 0.357095 -2.871232
2007-05-31 08:09:55 51°13 2°40.215 20.3099 0.066839 0.357102 -2.871232
2007-05-31 08:10:00 51°12.993 2°40.185 20.3151 0.066736 0.356542 -2.871232
2007-05-31 08:10:05 51°12.986 2°40.155 20.3155 0.066839 0.357109 -2.871232
2007-05-31 08:10:09 51°12.981 2°40.131 20.2947 0.066839 0.357109 -2.871232
2007-05-31 08:10:15 51°12.973 2°40.096 20.3115 0.066839 0.357109 -2.871232
2007-05-31 08:10:20 51°12.966 2°40.066 20.2926 0.066839 0.357109 -2.871232
2007-05-31 08:10:25 51°12.959 2°40.036 20.3076 0.066839 0.357115 -2.871232
2007-05-31 08:10:29 51°12.953 2°40.012 20.3113 0.066839 0.357115 -2.871232
2007-05-31 08:10:35 51°12.945 2°39.976 20.288 0.066736 0.356555 -2.871232
2007-05-31 08:10:39 51°12.94 2°39.952 20.3166 0.066736 0.356555 -2.871232
2007-05-31 08:10:45 51°12.931 2°39.917 20.3185 0.066736 0.356555 -2.871232
2007-05-31 08:10:50 51°12.924 2°39.887 20.3374 0.066839 0.357122 -2.871232
2007-05-31 08:10:55 51°12.916 2°39.858 20.3469 0.066839 0.357136 -2.871232
2007-05-31 08:11:00 51°12.907 2°39.83 20.3281 0.066839 0.357136 -2.871232
2007-05-31 08:11:04 51°12.9 2°39.807 20.3321 0.066839 0.357143 -2.871232
2007-05-31 08:11:10 51°12.888 2°39.774 20.3076 0.066839 0.357143 -2.871232
2007-05-31 08:11:15 51°12.878 2°39.747 20.3227 0.066839 0.357143 -2.871232
2007-05-31 08:11:20 51°12.867 2°39.72 20.2957 0.066736 0.356583 -2.871232
2007-05-31 08:11:24 51°12.859 2°39.698 20.3015 0.066839 0.35715 -2.871232
2007-05-31 08:11:30 51°12.846 2°39.666 20.3134 0.066736 0.356583 -2.871232
2007-05-31 08:11:35 51°12.835 2°39.639 20.3253 0.066839 0.357156 -2.871232
2007-05-31 08:11:40 51°12.825 2°39.613 20.3161 0.066839 0.357156 -2.871232
2007-05-31 08:11:45 51°12.814 2°39.586 20.2885 0.066839 0.357156 -2.871232
2007-05-31 08:11:49 51°12.805 2°39.564 20.3044 0.066736 0.356589 -2.871232
2007-05-31 08:11:55 51°12.792 2°39.533 20.3284 0.066736 0.356596 -2.871232
2007-05-31 08:12:00 51°12.782 2°39.506 20.3035 0.066736 0.356596 -2.871232
2007-05-31 08:12:05 51°12.771 2°39.479 20.3235 0.066736 0.356596 -2.871232
2007-05-31 08:12:09 51°12.762 2°39.457 20.3183 0.066736 0.356596 -2.871232
2007-05-31 08:12:15 51°12.749 2°39.426 20.321 0.066839 0.35717 -2.871232
2007-05-31 08:12:20 51°12.738 2°39.399 20.3251 0.066839 0.35717 -2.871232
2007-05-31 08:12:25 51°12.728 2°39.373 20.3141 0.066736 0.35661 -2.871232
2007-05-31 08:12:30 51°12.717 2°39.346 20.336 0.066736 0.35661 -2.871232
2007-05-31 08:12:35 51°12.706 2°39.319 20.3127 0.066736 0.356617 -2.871232
2007-05-31 08:12:40 51°12.695 2°39.292 20.3637 0.066736 0.356617 -2.871232
2007-05-31 08:12:45 51°12.684 2°39.267 20.3527 0.066736 0.356624 -2.871232
2007-05-31 08:12:49 51°12.674 2°39.247 20.3374 0.066736 0.356624 -2.871232
2007-05-31 08:12:55 51°12.659 2°39.217 20.3428 0.066736 0.35663 -2.871232
2007-05-31 08:13:00 51°12.647 2°39.192 20.3499 0.066736 0.356637 -2.871232
2007-05-31 08:13:05 51°12.633 2°39.169 20.3357 0.066839 0.357197 -2.871232
2007-05-31 08:13:10 51°12.621 2°39.145 20.3378 0.066839 0.357197 -2.871232
2007-05-31 08:13:15 51°12.607 2°39.121 20.3263 0.066736 0.356637 -2.871232
2007-05-31 08:13:19 51°12.597 2°39.102 20.346 0.066736 0.356637 -2.871232
2007-05-31 08:13:24 51°12.583 2°39.078 20.3429 0.066736 0.356644 -2.871232
2007-05-31 08:13:30 51°12.567 2°39.05 20.3388 0.066736 0.356637 -2.871232
2007-05-31 08:13:35 51°12.554 2°39.027 20.3276 0.066839 0.357211 -2.871232
2007-05-31 08:13:40 51°12.541 2°39.003 20.3341 0.066839 0.357211 -2.871232
2007-05-31 08:13:45 51°12.528 2°38.98 20.3217 0.066736 0.356644 -2.871232
2007-05-31 08:13:49 51°12.517 2°38.961 20.3504 0.066736 0.356644 -2.871232
2007-05-31 08:13:55 51°12.501 2°38.933 20.3478 0.066736 0.356651 -2.871232
2007-05-31 08:14:00 51°12.488 2°38.909 20.3207 0.066839 0.357225 -2.871232
2007-05-31 08:14:04 51°12.477 2°38.89 20.3439 0.066736 0.356664 -2.871232
2007-05-31 08:14:09 51°12.464 2°38.867 20.3293 0.066736 0.356664 -2.871232
2007-05-31 08:14:14 51°12.451 2°38.844 20.3382 0.066736 0.356664 -2.871232
2007-05-31 08:14:20 51°12.435 2°38.816 20.3361 0.066736 0.356664 -2.871232
2007-05-31 08:14:25 51°12.422 2°38.792 20.3512 0.066736 0.356671 -2.871232
2007-05-31 08:14:29 51°12.411 2°38.774 20.3273 0.066736 0.356678 -2.871232
2007-05-31 08:14:35 51°12.395 2°38.745 20.3393 0.066736 0.356678 -2.871232
2007-05-31 08:14:40 51°12.382 2°38.721 20.3445 0.066736 0.356678 -2.871232
2007-05-31 08:14:45 51°12.369 2°38.698 20.3378 0.066736 0.356678 -2.871232
2007-05-31 08:14:49 51°12.359 2°38.679 20.332 0.066736 0.356685 -2.871232
2007-05-31 08:14:55 51°12.343 2°38.65 20.3505 0.066736 0.356685 -2.871232
2007-05-31 08:14:59 51°12.333 2°38.631 20.3512 0.066736 0.356685 -2.871232
2007-05-31 08:15:05 51°12.317 2°38.603 20.3486 0.066736 0.356685 -2.871232
2007-05-31 08:15:10 51°12.304 2°38.579 20.3368 0.066736 0.356685 -2.871232
2007-05-31 08:15:15 51°12.291 2°38.556 20.3584 0.066736 0.356692 -2.871232
2007-05-31 08:15:20 51°12.278 2°38.532 20.3367 0.066736 0.356699 -2.871232
2007-05-31 08:15:25 51°12.265 2°38.508 20.351 0.066736 0.356692 -2.871232
2007-05-31 08:15:29 51°12.254 2°38.49 20.3489 0.066736 0.356699 -2.871232
2007-05-31 08:15:35 51°12.239 2°38.461 20.3566 0.066736 0.356705 -2.871232
2007-05-31 08:15:40 51°12.226 2°38.438 20.3521 0.066736 0.356705 -2.871232
2007-05-31 08:15:44 51°12.215 2°38.419 20.357 0.066736 0.356705 -2.871232
2007-05-31 08:15:50 51°12.2 2°38.391 20.3416 0.066736 0.356712 -2.871232
2007-05-31 08:15:55 51°12.187 2°38.367 20.3575 0.066736 0.356712 -2.871232
2007-05-31 08:16:00 51°12.174 2°38.344 20.3411 0.066736 0.356719 -2.871232
2007-05-31 08:16:05 51°12.161 2°38.32 20.3542 0.066736 0.356719 -2.871232
2007-05-31 08:16:09 51°12.15 2°38.301 20.3589 0.066736 0.356719 -2.871232
2007-05-31 08:16:15 51°12.135 2°38.273 20.3522 0.066736 0.356726 -2.871232
2007-05-31 08:16:20 51°12.122 2°38.249 20.3682 0.066736 0.356726 -2.871232
2007-05-31 08:16:25 51°12.109 2°38.226 20.3515 0.066736 0.356733 -2.871232
2007-05-31 08:16:29 51°12.098 2°38.207 20.356 0.066736 0.35674 -2.871232
2007-05-31 08:16:35 51°12.083 2°38.179 20.3677 0.066736 0.35674 -2.871232
2007-05-31 08:16:40 51°12.07 2°38.156 20.3425 0.066736 0.35674 -2.871232
2007-05-31 08:16:45 51°12.056 2°38.132 20.3433 0.066736 0.35674 -2.871232
2007-05-31 08:16:49 51°12.046 2°38.114 20.3689 0.066736 0.35674 -2.871232
2007-05-31 08:16:55 51°12.03 2°38.085 20.3572 0.066736 0.35674 -2.871232
2007-05-31 08:17:00 51°12.018 2°38.062 20.3445 0.066736 0.356746 -2.871232
2007-05-31 08:17:05 51°12.005 2°38.038 20.3552 0.066736 0.356746 -2.871232
2007-05-31 08:17:09 51°11.994 2°38.019 20.3573 0.066736 0.356746 -2.871232
2007-05-31 08:17:15 51°11.979 2°37.991 20.3624 0.066736 0.356746 -2.871232
2007-05-31 08:17:19 51°11.969 2°37.972 20.3675 0.066736 0.356753 -2.871232
2007-05-31 08:17:25 51°11.953 2°37.944 20.3616 0.066736 0.35676 -2.871232
2007-05-31 08:17:30 51°11.94 2°37.92 20.3643 0.066736 0.35676 -2.871232
2007-05-31 08:17:35 51°11.927 2°37.896 20.3611 0.066736 0.356767 -2.871232
2007-05-31 08:17:39 51°11.917 2°37.878 20.3721 0.066736 0.356767 -2.871232
2007-05-31 08:17:45 51°11.901 2°37.85 20.3547 0.066736 0.356767 -2.871232
2007-05-31 08:17:50 51°11.889 2°37.826 20.379 0.066736 0.356774 -2.871232
2007-05-31 08:17:55 51°11.875 2°37.803 20.3789 0.066736 0.356781 -2.871232
2007-05-31 08:18:00 51°11.862 2°37.781 20.3804 0.066736 0.356781 -2.871232
2007-05-31 08:18:04 51°11.851 2°37.763 20.384 0.066736 0.356787 -2.871232
2007-05-31 08:18:10 51°11.834 2°37.737 20.378 0.066736 0.356787 -2.871232
2007-05-31 08:18:15 51°11.82 2°37.715 20.3582 0.066736 0.356787 -2.871232
2007-05-31 08:18:20 51°11.806 2°37.694 20.3841 0.066736 0.356787 -2.871232
2007-05-31 08:18:24 51°11.795 2°37.677 20.3769 0.066736 0.356794 -2.871232
2007-05-31 08:18:29 51°11.781 2°37.656 20.38 0.066736 0.356794 -2.871232
2007-05-31 08:18:35 51°11.763 2°37.631 20.3879 0.066736 0.356801 -2.871232
2007-05-31 08:18:40 51°11.748 2°37.611 20.3567 0.066736 0.356801 -2.871232
2007-05-31 08:18:45 51°11.733 2°37.59 20.3723 0.066736 0.356801 -2.871232
2007-05-31 08:18:49 51°11.721 2°37.574 20.3608 0.066736 0.356801 -2.871232
2007-05-31 08:18:55 51°11.704 2°37.549 20.3646 0.066736 0.356801 -2.871232
2007-05-31 08:19:00 51°11.689 2°37.528 20.371 0.066736 0.356808 -2.871232
2007-05-31 08:19:05 51°11.674 2°37.508 20.3775 0.066736 0.356808 -2.871232
2007-05-31 08:19:09 51°11.663 2°37.491 20.373 0.066736 0.356808 -2.871232
2007-05-31 08:19:15 51°11.645 2°37.466 20.3793 0.066736 0.356815 -2.871232
2007-05-31 08:19:20 51°11.63 2°37.446 20.3682 0.066736 0.356815 -2.871232
2007-05-31 08:19:25 51°11.615 2°37.425 20.3932 0.066736 0.356815 -2.871232
2007-05-31 08:19:29 51°11.603 2°37.409 20.3941 0.066736 0.356821 -2.871232
2007-05-31 08:19:35 51°11.585 2°37.384 20.3916 0.066736 0.356821 -2.871232
2007-05-31 08:19:40 51°11.57 2°37.364 20.3688 0.066736 0.356821 -2.871232
2007-05-31 08:19:45 51°11.556 2°37.343 20.3662 0.066736 0.356828 -2.871232
2007-05-31 08:19:50 51°11.541 2°37.323 20.4015 0.066736 0.356828 -2.871232
2007-05-31 08:19:55 51°11.526 2°37.302 20.3853 0.066736 0.356835 -2.871232
2007-05-31 08:19:59 51°11.515 2°37.286 20.3717 0.066736 0.356835 -2.871232
2007-05-31 08:20:04 51°11.5 2°37.265 20.3927 0.066736 0.356835 -2.871232
2007-05-31 08:20:10 51°11.483 2°37.24 20.3953 0.066736 0.356835 -2.871232
2007-05-31 08:20:15 51°11.468 2°37.22 20.3723 0.066736 0.356842 -2.871232
2007-05-31 08:20:20 51°11.453 2°37.2 20.4172 0.066736 0.356842 -2.871232
2007-05-31 08:20:25 51°11.436 2°37.183 20.386 0.066736 0.356856 -2.871232
2007-05-31 08:20:30 51°11.421 2°37.165 20.4212 0.066736 0.356856 -2.871232
2007-05-31 08:20:35 51°11.404 2°37.149 20.385 0.066736 0.356862 -2.871232
2007-05-31 08:20:40 51°11.388 2°37.132 20.3994 0.066736 0.356862 -2.871232
2007-05-31 08:20:44 51°11.374 2°37.12 20.377 0.066736 0.356862 -2.871232
2007-05-31 08:20:49 51°11.357 2°37.104 20.3854 0.066736 0.356862 -2.871232
2007-05-31 08:20:55 51°11.337 2°37.085 20.3785 0.066736 0.356862 -2.871232
2007-05-31 08:21:00 51°11.32 2°37.07 20.3769 0.066736 0.356862 -2.871232
2007-05-31 08:21:05 51°11.303 2°37.055 20.387 0.066736 0.356869 -2.871232
2007-05-31 08:21:09 51°11.289 2°37.042 20.4013 0.066736 0.356869 -2.871232
2007-05-31 08:21:15 51°11.269 2°37.024 20.3892 0.066736 0.356869 -2.871232
2007-05-31 08:21:20 51°11.252 2°37.008 20.3904 0.066736 0.356869 -2.871232
2007-05-31 08:21:25 51°11.235 2°36.993 20.3939 0.066736 0.356876 -2.871232
2007-05-31 08:21:29 51°11.221 2°36.981 20.3727 0.066736 0.356883 -2.871232
2007-05-31 08:21:35 51°11.201 2°36.962 20.3903 0.066736 0.356883 -2.871232
2007-05-31 08:21:40 51°11.184 2°36.947 20.3882 0.066736 0.356883 -2.871232
2007-05-31 08:21:45 51°11.167 2°36.931 20.3951 0.066736 0.356883 -2.871232
2007-05-31 08:21:50 51°11.15 2°36.915 20.4025 0.066736 0.35689 -2.871232
2007-05-31 08:21:55 51°11.133 2°36.9 20.3878 0.066736 0.356897 -2.871232
2007-05-31 08:22:00 51°11.116 2°36.884 20.3905 0.066736 0.356897 -2.871232
2007-05-31 08:22:05 51°11.099 2°36.868 20.4062 0.066736 0.356897 -2.871232
2007-05-31 08:22:09 51°11.086 2°36.856 20.3983 0.066736 0.356897 -2.871232
2007-05-31 08:22:15 51°11.065 2°36.837 20.3878 0.066736 0.356903 -2.871232
2007-05-31 08:22:20 51°11.048 2°36.822 20.4076 0.066736 0.356903 -2.871232
2007-05-31 08:22:25 51°11.03 2°36.809 20.4478 0.066736 0.356917 -2.871232
2007-05-31 08:22:30 51°11.012 2°36.798 20.4148 0.066736 0.356924 -2.871232
2007-05-31 08:22:35 51°10.994 2°36.788 20.4474 0.066736 0.356924 -2.871232
2007-05-31 08:22:40 51°10.976 2°36.781 20.4354 0.066736 0.356924 -2.871232
2007-05-31 08:22:45 51°10.957 2°36.776 20.4229 0.066736 0.356931 -2.871232
2007-05-31 08:22:50 51°10.938 2°36.772 20.4198 0.066736 0.356938 -2.871232
2007-05-31 08:22:55 51°10.919 2°36.77 20.4041 0.066736 0.356938 -2.871232
2007-05-31 08:23:00 51°10.9 2°36.767 20.4083 0.066736 0.356938 -2.871232
2007-05-31 08:23:05 51°10.881 2°36.766 20.3965 0.066736 0.356938 -2.871232
2007-05-31 08:23:09 51°10.866 2°36.766 20.3972 0.066736 0.356938 -2.871232
2007-05-31 08:23:15 51°10.843 2°36.766 20.4312 0.066736 0.356938 -2.871232
2007-05-31 08:23:20 51°10.824 2°36.769 20.4381 0.066736 0.356944 -2.871232
2007-05-31 08:23:25 51°10.806 2°36.774 20.4013 0.066736 0.356951 -2.871232
2007-05-31 08:23:29 51°10.791 2°36.779 20.448 0.066736 0.356951 -2.871232
2007-05-31 08:23:34 51°10.773 2°36.788 20.4344 0.066736 0.356958 -2.871232
2007-05-31 08:23:40 51°10.753 2°36.801 20.4489 0.066736 0.356958 -2.871232
2007-05-31 08:23:45 51°10.737 2°36.814 20.3979 0.066736 0.356972 -2.871232
2007-05-31 08:23:49 51°10.724 2°36.825 20.4351 0.066736 0.356965 -2.871232
2007-05-31 08:23:55 51°10.705 2°36.843 20.3959 0.066736 0.356972 -2.871232
2007-05-31 08:24:00 51°10.689 2°36.858 20.4129 0.066736 0.356972 -2.871232
2007-05-31 08:24:05 51°10.674 2°36.875 20.4056 0.066736 0.356972 -2.871232
2007-05-31 08:24:10 51°10.659 2°36.891 20.4005 0.066736 0.356972 -2.871232
2007-05-31 08:24:15 51°10.644 2°36.908 20.4002 0.066736 0.356972 -2.871232
2007-05-31 08:24:19 51°10.632 2°36.922 20.3966 0.066736 0.356972 -2.871232
2007-05-31 08:24:25 51°10.614 2°36.942 20.3918 0.066736 0.356972 -2.871232
2007-05-31 08:24:30 51°10.599 2°36.959 20.3872 0.066736 0.356965 -2.871232
2007-05-31 08:24:35 51°10.584 2°36.975 20.3811 0.066736 0.356965 -2.871232
2007-05-31 08:24:40 51°10.569 2°36.99 20.393 0.066736 0.356965 -2.871232
2007-05-31 08:24:44 51°10.556 2°37.001 20.3988 0.066736 0.356965 -2.871232
2007-05-31 08:24:50 51°10.537 2°37.019 20.3818 0.066736 0.356972 -2.871232
2007-05-31 08:24:55 51°10.521 2°37.032 20.3894 0.066736 0.356972 -2.871232
2007-05-31 08:25:00 51°10.505 2°37.046 20.3836 0.066736 0.356979 -2.871232
2007-05-31 08:25:04 51°10.491 2°37.056 20.4046 0.066736 0.356986 -2.871232
2007-05-31 08:25:10 51°10.47 2°37.072 20.4005 0.066736 0.356986 -2.871232
2007-05-31 08:25:15 51°10.452 2°37.085 20.3996 0.066736 0.356992 -2.871232
2007-05-31 08:25:20 51°10.434 2°37.097 20.413 0.066736 0.356999 -2.871232
2007-05-31 08:25:25 51°10.415 2°37.109 20.4278 0.066736 0.356999 -2.871232
2007-05-31 08:25:29 51°10.401 2°37.119 20.4203 0.066736 0.357006 -2.871232
2007-05-31 08:25:35 51°10.379 2°37.132 20.4086 0.066736 0.357013 -2.871232
2007-05-31 08:25:40 51°10.361 2°37.142 20.4089 0.066736 0.357013 -2.871232
2007-05-31 08:25:45 51°10.343 2°37.15 20.4146 0.066633 0.356445 -2.871232
2007-05-31 08:25:49 51°10.328 2°37.156 20.4129 0.066736 0.35702 -2.871232
2007-05-31 08:25:55 51°10.306 2°37.164 20.423 0.066736 0.35702 -2.871232
2007-05-31 08:26:00 51°10.287 2°37.17 20.4206 0.066736 0.357027 -2.871232
2007-05-31 08:26:05 51°10.269 2°37.174 20.4203 0.066736 0.357033 -2.871232
2007-05-31 08:26:09 51°10.254 2°37.179 20.4191 0.066736 0.357033 -2.871232
2007-05-31 08:26:15 51°10.231 2°37.184 20.4234 0.066736 0.357033 -2.871232
2007-05-31 08:26:20 51°10.212 2°37.189 20.4292 0.066736 0.35704 -2.871232
2007-05-31 08:26:25 51°10.193 2°37.194 20.4187 0.066736 0.357047 -2.871232
2007-05-31 08:26:29 51°10.178 2°37.197 20.4236 0.066736 0.357054 -2.871232
2007-05-31 08:26:35 51°10.155 2°37.201 20.4343 0.066736 0.357061 -2.871232
2007-05-31 08:26:39 51°10.14 2°37.203 20.4444 0.066736 0.357061 -2.871232
2007-05-31 08:26:45 51°10.117 2°37.208 20.4316 0.066633 0.3565 -2.871232
2007-05-31 08:26:50 51°10.098 2°37.212 20.4428 0.066736 0.357068 -2.871232
2007-05-31 08:26:55 51°10.079 2°37.216 20.4421 0.066633 0.356507 -2.871232
2007-05-31 08:27:00 51°10.06 2°37.221 20.4464 0.066736 0.357074 -2.871232
2007-05-31 08:27:05 51°10.042 2°37.224 20.4545 0.066633 0.35652 -2.871232
2007-05-31 08:27:10 51°10.023 2°37.229 20.4322 0.066633 0.35652 -2.871232
2007-05-31 08:27:15 51°10.004 2°37.234 20.4305 0.066633 0.35652 -2.871232
2007-05-31 08:27:20 51°9.985 2°37.239 20.4251 0.066633 0.356527 -2.871232
2007-05-31 08:27:24 51°9.97 2°37.243 20.4309 0.066736 0.357095 -2.871232
2007-05-31 08:27:30 51°9.947 2°37.247 20.4479 0.066633 0.356534 -2.871232
2007-05-31 08:27:35 51°9.928 2°37.251 20.4425 0.066633 0.356534 -2.871232
2007-05-31 08:27:40 51°9.909 2°37.254 20.4542 0.066633 0.356534 -2.871232
2007-05-31 08:27:45 51°9.891 2°37.258 20.4449 0.066633 0.356541 -2.871232
2007-05-31 08:27:49 51°9.875 2°37.261 20.4454 0.066633 0.356548 -2.871232
2007-05-31 08:27:55 51°9.852 2°37.267 20.4392 0.066633 0.356548 -2.871232
2007-05-31 08:28:00 51°9.834 2°37.271 20.4326 0.066736 0.357122 -2.871232
2007-05-31 08:28:05 51°9.815 2°37.275 20.4455 0.066736 0.357122 -2.871232
2007-05-31 08:28:09 51°9.8 2°37.278 20.4452 0.066736 0.357122 -2.871232
2007-05-31 08:28:15 51°9.777 2°37.283 20.446 0.066633 0.356555 -2.871232
2007-05-31 08:28:20 51°9.758 2°37.287 20.4412 0.066736 0.357129 -2.871232
2007-05-31 08:28:25 51°9.739 2°37.292 20.4335 0.066633 0.356568 -2.871232
2007-05-31 08:28:30 51°9.72 2°37.296 20.4449 0.066633 0.356575 -2.871232
2007-05-31 08:28:35 51°9.701 2°37.302 20.4335 0.066633 0.356575 -2.871232
2007-05-31 08:28:40 51°9.682 2°37.306 20.4623 0.066633 0.356575 -2.871232
2007-05-31 08:28:45 51°9.663 2°37.311 20.4521 0.066633 0.356582 -2.871232
2007-05-31 08:28:49 51°9.648 2°37.315 20.4607 0.066633 0.356589 -2.871232
2007-05-31 08:28:55 51°9.625 2°37.32 20.4569 0.066633 0.356596 -2.871232
2007-05-31 08:29:00 51°9.606 2°37.325 20.4471 0.066633 0.356596 -2.871232
2007-05-31 08:29:04 51°9.591 2°37.328 20.4535 0.066633 0.356602 -2.871232
2007-05-31 08:29:10 51°9.569 2°37.334 20.4528 0.066633 0.356602 -2.871232
2007-05-31 08:29:15 51°9.55 2°37.338 20.4607 0.066633 0.356602 -2.871232
2007-05-31 08:29:20 51°9.531 2°37.343 20.4538 0.066633 0.356609 -2.871232
2007-05-31 08:29:24 51°9.516 2°37.347 20.4465 0.066633 0.356616 -2.871232
2007-05-31 08:29:30 51°9.494 2°37.353 20.459 0.066633 0.356616 -2.871232
2007-05-31 08:29:35 51°9.475 2°37.359 20.4347 0.066633 0.356616 -2.871232
2007-05-31 08:29:40 51°9.457 2°37.364 20.434 0.066633 0.356616 -2.871232
2007-05-31 08:29:45 51°9.44 2°37.368 20.4438 0.066633 0.356623 -2.871232
2007-05-31 08:29:50 51°9.424 2°37.373 20.4459 0.066633 0.356637 -2.871232
2007-05-31 08:29:55 51°9.409 2°37.377 20.4595 0.066633 0.356637 -2.871232
2007-05-31 08:30:00 51°9.395 2°37.381 20.4734 0.066633 0.356643 -2.871232
2007-05-31 08:30:05 51°9.383 2°37.385 20.5001 0.066633 0.35665 -2.871232
2007-05-31 08:30:09 51°9.375 2°37.388 20.5083 0.066633 0.35665 -2.871232
2007-05-31 08:30:15 51°9.363 2°37.396 20.5165 0.066633 0.356664 -2.871232
2007-05-31 08:30:20 51°9.354 2°37.403 20.5085 0.066633 0.356671 -2.871232
2007-05-31 08:30:25 51°9.347 2°37.411 20.5058 0.066633 0.356678 -2.871232
2007-05-31 08:30:29 51°9.341 2°37.417 20.5056 0.066633 0.356684 -2.871232
2007-05-31 08:30:35 51°9.334 2°37.427 20.5053 0.066633 0.356684 -2.871232
2007-05-31 08:30:40 51°9.33 2°37.435 20.52 0.066633 0.356684 -2.871232
2007-05-31 08:30:45 51°9.325 2°37.443 20.5344 0.066633 0.356691 -2.871232
2007-05-31 08:30:50 51°9.322 2°37.452 20.5265 0.066633 0.356691 -2.871232
2007-05-31 08:30:55 51°9.32 2°37.462 20.518 0.066633 0.356705 -2.871232
2007-05-31 08:30:59 51°9.318 2°37.469 20.5004 0.066633 0.356705 -2.871232
2007-05-31 08:31:05 51°9.317 2°37.481 20.5234 0.066633 0.356712 -2.871232
2007-05-31 08:31:10 51°9.317 2°37.49 20.5047 0.066633 0.356712 -2.871232
2007-05-31 08:31:15 51°9.318 2°37.498 20.5119 0.066633 0.356712 -2.871232
2007-05-31 08:31:20 51°9.32 2°37.506 20.4789 0.066633 0.356719 -2.871232
2007-05-31 08:31:25 51°9.322 2°37.514 20.517 0.066633 0.356725 -2.871232
2007-05-31 08:31:30 51°9.324 2°37.521 20.5058 0.066633 0.356725 -2.871232
2007-05-31 08:31:35 51°9.328 2°37.527 20.508 0.066633 0.356732 -2.871232
2007-05-31 08:31:40 51°9.332 2°37.532 20.5161 0.066633 0.356732 -2.871232
2007-05-31 08:31:44 51°9.335 2°37.536 20.5029 0.066633 0.356732 -2.871232
2007-05-31 08:31:50 51°9.339 2°37.539 20.4597 0.066633 0.356739 -2.871232
2007-05-31 08:31:55 51°9.343 2°37.542 20.4861 0.066633 0.356732 -2.871232
2007-05-31 08:32:00 51°9.347 2°37.544 20.4957 0.066633 0.356732 -2.871232
2007-05-31 08:32:05 51°9.35 2°37.547 20.4756 0.066633 0.356725 -2.871232
2007-05-31 08:32:10 51°9.354 2°37.548 20.489 0.066633 0.356725 -2.871232
2007-05-31 08:32:15 51°9.357 2°37.55 20.4981 0.066633 0.356725 -2.871232
2007-05-31 08:32:20 51°9.36 2°37.551 20.4958 0.066633 0.356719 -2.871232
2007-05-31 08:32:25 51°9.363 2°37.553 20.4894 0.066633 0.356719 -2.871232
2007-05-31 08:32:29 51°9.366 2°37.554 20.4975 0.066633 0.356719 -2.871232
2007-05-31 08:32:35 51°9.37 2°37.555 20.4988 0.066633 0.356719 -2.871232
2007-05-31 08:32:40 51°9.373 2°37.555 20.4908 0.066633 0.356719 -2.871232
2007-05-31 08:32:45 51°9.375 2°37.556 20.498 0.066633 0.356725 -2.871232
2007-05-31 08:32:49 51°9.378 2°37.557 20.4991 0.066633 0.356732 -2.871232
2007-05-31 08:32:55 51°9.381 2°37.557 20.4881 0.066633 0.356739 -2.871232
2007-05-31 08:33:00 51°9.384 2°37.557 20.4964 0.066633 0.356746 -2.871232
2007-05-31 08:33:05 51°9.386 2°37.557 20.4998 0.066633 0.356746 -2.871232
2007-05-31 08:33:09 51°9.388 2°37.557 20.4888 0.066633 0.356746 -2.871232
2007-05-31 08:33:15 51°9.391 2°37.557 20.4899 0.066633 0.356753 -2.871232
2007-05-31 08:33:20 51°9.394 2°37.557 20.4865 0.066633 0.35676 -2.871232
2007-05-31 08:33:25 51°9.396 2°37.557 20.4961 0.066633 0.35676 -2.871232
2007-05-31 08:33:30 51°9.399 2°37.557 20.4878 0.066633 0.356767 -2.871232
2007-05-31 08:33:35 51°9.401 2°37.557 20.4952 0.066633 0.356773 -2.871232
2007-05-31 08:33:40 51°9.403 2°37.556 20.4952 0.066633 0.356773 -2.871232
2007-05-31 08:33:45 51°9.405 2°37.556 20.4833 0.066633 0.356773 -2.871232
2007-05-31 08:33:50 51°9.408 2°37.556 20.5045 0.066633 0.35678 -2.871232
2007-05-31 08:33:55 51°9.41 2°37.555 20.5074 0.066633 0.35678 -2.871232
2007-05-31 08:34:00 51°9.412 2°37.555 20.5036 0.066633 0.356787 -2.871232
2007-05-31 08:34:04 51°9.413 2°37.554 20.4893 0.066633 0.356794 -2.871232
2007-05-31 08:34:10 51°9.416 2°37.554 20.5032 0.066633 0.356794 -2.871232
2007-05-31 08:34:15 51°9.418 2°37.553 20.5067 0.066633 0.356801 -2.871232
2007-05-31 08:34:20 51°9.42 2°37.552 20.5053 0.066633 0.356808 -2.871232
2007-05-31 08:34:25 51°9.421 2°37.551 20.5005 0.066633 0.356808 -2.871232
2007-05-31 08:34:29 51°9.423 2°37.551 20.5084 0.066633 0.356814 -2.871232
2007-05-31 08:34:35 51°9.425 2°37.55 20.5041 0.066633 0.356821 -2.871232
2007-05-31 08:34:40 51°9.427 2°37.549 20.511 0.066633 0.356821 -2.871232
2007-05-31 08:34:45 51°9.428 2°37.548 20.5031 0.066633 0.356821 -2.871232
2007-05-31 08:34:49 51°9.43 2°37.547 20.5097 0.066633 0.356828 -2.871232
2007-05-31 08:34:55 51°9.432 2°37.546 20.5096 0.066633 0.356835 -2.871232
2007-05-31 08:35:00 51°9.433 2°37.545 20.5072 0.066633 0.356828 -2.871232
2007-05-31 08:35:05 51°9.435 2°37.544 20.5135 0.066633 0.356842 -2.871232
2007-05-31 08:35:10 51°9.436 2°37.543 20.5081 0.066633 0.356842 -2.871232
2007-05-31 08:35:15 51°9.438 2°37.542 20.515 0.066633 0.356835 -2.871232
2007-05-31 08:35:20 51°9.439 2°37.541 20.502 0.066633 0.356842 -2.871232
2007-05-31 08:35:25 51°9.44 2°37.54 20.5177 0.066633 0.356842 -2.871232
2007-05-31 08:35:29 51°9.441 2°37.539 20.5194 0.066633 0.356849 -2.871232
2007-05-31 08:35:35 51°9.443 2°37.537 20.5202 0.066633 0.356849 -2.871232
2007-05-31 08:35:40 51°9.444 2°37.536 20.513 0.066633 0.356849 -2.871232
2007-05-31 08:35:45 51°9.446 2°37.535 20.5212 0.066633 0.356849 -2.871232
2007-05-31 08:35:50 51°9.447 2°37.533 20.5238 0.066633 0.356855 -2.871232
2007-05-31 08:35:55 51°9.45 2°37.532 20.5254 0.066633 0.356855 -2.871232
2007-05-31 08:35:59 51°9.451 2°37.531 20.5217 0.066633 0.356855 -2.871232
2007-05-31 08:36:04 51°9.454 2°37.529 20.5215 0.066633 0.356862 -2.871232
2007-05-31 08:36:10 51°9.458 2°37.527 20.5101 0.066633 0.356862 -2.871232
2007-05-31 08:36:15 51°9.461 2°37.526 20.5209 0.066633 0.356862 -2.871232
2007-05-31 08:36:20 51°9.465 2°37.524 20.5184 0.066633 0.356869 -2.871232
2007-05-31 08:36:25 51°9.469 2°37.522 20.5262 0.066633 0.356869 -2.871232
2007-05-31 08:36:30 51°9.474 2°37.521 20.5147 0.066633 0.356869 -2.871232
2007-05-31 08:36:35 51°9.48 2°37.52 20.5181 0.066633 0.356876 -2.871232
2007-05-31 08:36:40 51°9.485 2°37.519 20.4935 0.066633 0.356876 -2.871232
2007-05-31 08:36:44 51°9.49 2°37.519 20.5141 0.066633 0.356876 -2.871232
2007-05-31 08:36:49 51°9.496 2°37.519 20.5117 0.066633 0.356876 -2.871232
2007-05-31 08:36:55 51°9.503 2°37.521 20.5095 0.066633 0.356876 -2.871232
2007-05-31 08:37:00 51°9.509 2°37.523 20.5131 0.066633 0.356883 -2.871232
2007-05-31 08:37:05 51°9.515 2°37.526 20.5205 0.066633 0.356883 -2.871232
2007-05-31 08:37:09 51°9.519 2°37.528 20.5088 0.066633 0.356883 -2.871232
2007-05-31 08:37:15 51°9.525 2°37.533 20.5092 0.066633 0.35689 -2.871232
2007-05-31 08:37:20 51°9.53 2°37.537 20.5119 0.066633 0.356897 -2.871232
2007-05-31 08:37:25 51°9.535 2°37.542 20.5107 0.066633 0.356897 -2.871232
2007-05-31 08:37:29 51°9.538 2°37.546 20.5153 0.06653 0.356335 -2.871232
2007-05-31 08:37:35 51°9.543 2°37.552 20.5255 0.066633 0.356903 -2.871232
2007-05-31 08:37:40 51°9.546 2°37.557 20.5169 0.066633 0.356903 -2.871232
2007-05-31 08:37:45 51°9.549 2°37.563 20.5258 0.066633 0.35691 -2.871232
2007-05-31 08:37:50 51°9.552 2°37.568 20.5121 0.066633 0.35691 -2.871232
2007-05-31 08:37:55 51°9.555 2°37.574 20.522 0.066633 0.356917 -2.871232
2007-05-31 08:38:00 51°9.558 2°37.579 20.529 0.066633 0.35691 -2.871232
2007-05-31 08:38:05 51°9.56 2°37.585 20.5251 0.066633 0.356917 -2.871232
2007-05-31 08:38:10 51°9.562 2°37.591 20.52 0.066633 0.356917 -2.871232
2007-05-31 08:38:15 51°9.564 2°37.596 20.5347 0.066633 0.356917 -2.871232
2007-05-31 08:38:20 51°9.566 2°37.602 20.5218 0.066633 0.356917 -2.871232
2007-05-31 08:38:24 51°9.567 2°37.607 20.5246 0.066633 0.356924 -2.871232
2007-05-31 08:38:30 51°9.569 2°37.614 20.528 0.06653 0.356356 -2.871232
2007-05-31 08:38:35 51°9.57 2°37.621 20.5447 0.066633 0.356924 -2.871232
2007-05-31 08:38:40 51°9.571 2°37.627 20.5417 0.066633 0.356924 -2.871232
2007-05-31 08:38:45 51°9.571 2°37.633 20.5401 0.06653 0.356356 -2.871232
2007-05-31 08:38:49 51°9.572 2°37.639 20.5452 0.06653 0.356362 -2.871232
2007-05-31 08:38:55 51°9.572 2°37.647 20.5251 0.066633 0.356931 -2.871232
2007-05-31 08:39:00 51°9.573 2°37.653 20.5258 0.066633 0.356938 -2.871232
2007-05-31 08:39:05 51°9.573 2°37.66 20.5312 0.066633 0.356938 -2.871232
2007-05-31 08:39:09 51°9.572 2°37.666 20.5385 0.066633 0.356938 -2.871232
2007-05-31 08:39:15 51°9.572 2°37.674 20.5193 0.06653 0.356369 -2.871232
2007-05-31 08:39:20 51°9.571 2°37.681 20.5376 0.066633 0.356938 -2.871232
2007-05-31 08:39:25 51°9.57 2°37.689 20.536 0.066633 0.356944 -2.871232
2007-05-31 08:39:29 51°9.569 2°37.694 20.54 0.06653 0.356383 -2.871232
2007-05-31 08:39:35 51°9.568 2°37.703 20.5334 0.06653 0.356383 -2.871232
2007-05-31 08:39:40 51°9.567 2°37.71 20.5368 0.06653 0.356383 -2.871232
2007-05-31 08:39:45 51°9.567 2°37.716 20.5356 0.066633 0.356958 -2.871232
2007-05-31 08:39:49 51°9.566 2°37.722 20.5527 0.06653 0.35639 -2.871232
2007-05-31 08:39:55 51°9.565 2°37.731 20.5486 0.066633 0.356958 -2.871232
2007-05-31 08:40:00 51°9.564 2°37.738 20.5438 0.06653 0.35639 -2.871232
2007-05-31 08:40:05 51°9.564 2°37.745 20.5437 0.066633 0.356958 -2.871232
2007-05-31 08:40:10 51°9.563 2°37.752 20.5403 0.066633 0.356958 -2.871232
2007-05-31 08:40:15 51°9.563 2°37.759 20.5515 0.06653 0.35639 -2.871232